EW4266 Weather Reports


time (UTC)temp
F
wind
direction
speed
knots
gust
knots
rain 1hr
in
rain 24hr
in
rain mn
in
humidity
%
barometer
mb
20260508200407 51 244 2.6 8.7 0.00 0.00 0.00 41 1009.3
20260508200328 51 207 3.5 8.7 0.00 0.00 0.00 39 1009.3
20260508200159 51 226 5.2 8.7 0.00 0.00 0.00 40 1009.4
20260508200032 51 196 5.2 8.7 0.00 0.00 0.00 39 1009.4
20260508195956 52 188 4.3 9.6 0.00 0.00 0.00 40 1009.4
20260508195841 52 222 2.6 8.7 0.00 0.00 0.00 40 1009.3
20260508195737 52 197 3.5 8.7 0.00 0.00 0.00 39 1009.4
20260508195617 52 217 3.5 8.7 0.00 0.00 0.00 39 1009.4
20260508195529 52 274 3.5 7.8 0.00 0.00 0.00 40 1009.4
20260508195433 52 282 3.5 7.8 0.00 0.00 0.00 40 1009.4
20260508195355 52 290 3.5 7.8 0.00 0.00 0.00 41 1009.4
20260508195317 52 251 3.5 7.8 0.00 0.00 0.00 41 1009.4
20260508195142 52 306 1.7 8.7 0.00 0.00 0.00 41 1009.4
20260508195042 52 74 2.6 8.7 0.00 0.00 0.00 40 1009.4
20260508194925 52 239 3.5 10.4 0.00 0.00 0.00 40 1009.4
20260508194830 52 248 3.5 10.4 0.00 0.00 0.00 40 1009.4
20260508194732 52 331 3.5 10.4 0.00 0.00 0.00 41 1009.5
20260508194655 51 348 3.5 10.4 0.00 0.00 0.00 39 1009.5
20260508194617 52 299 4.3 10.4 0.00 0.00 0.00 40 1009.4
20260508194406 52 296 4.3 10.4 0.00 0.00 0.00 40 1009.4
20260508194322 52 327 5.2 10.4 0.00 0.00 0.00 43 1009.4
20260508194133 52 360 6.1 10.4 0.00 0.00 0.00 41 1009.4
20260508194048 52 15 4.3 10.4 0.00 0.00 0.00 42 1009.4
20260508193839 52 322 2.6 7.0 0.00 0.00 0.00 42 1009.4
20260508193754 52 302 0.9 4.3 0.00 0.00 0.00 43 1009.3
20260508193522 52 213 2.6 4.3 0.00 0.00 0.00 40 1009.2
20260508193425 52 213 1.7 4.3 0.00 0.00 0.00 39 1009.3
20260508193329 52 211 1.7 5.2 0.00 0.00 0.00 40 1009.2
20260508193252 52 258 1.7 5.2 0.00 0.00 0.00 40 1009.2
20260508193214 52 269 1.7 5.2 0.00 0.00 0.00 42 1009.2
20260508193036 52 292 0.9 5.2 0.00 0.00 0.00 45 1009.3
20260508192939 52 257 2.6 5.2 0.00 0.00 0.00 44 1009.4
20260508192825 52 325 3.5 5.2 0.00 0.00 0.00 44 1009.3
20260508192746 52 323 3.5 5.2 0.00 0.00 0.00 44 1009.3
20260508192621 52 333 4.3 5.2 0.00 0.00 0.00 44 1009.4
20260508192537 51 355 4.3 7.8 0.00 0.00 0.00 43 1009.4
20260508192406 51 355 3.5 7.8 0.00 0.00 0.00 43 1009.3
20260508192330 51 351 3.5 7.8 0.00 0.00 0.00 43 1009.4
20260508192132 51 298 3.5 8.7 0.00 0.00 0.00 43 1009.4
20260508192056 51 325 2.6 8.7 0.00 0.00 0.00 43 1009.4
20260508191940 51 5 0.9 9.6 0.00 0.00 0.00 44 1009.3
20260508191902 51 5 2.6 9.6 0.00 0.00 0.00 42 1009.3
20260508191725 51 360 5.2 9.6 0.00 0.00 0.00 42 1009.4
20260508191648 51 347 5.2 9.6 0.00 0.00 0.00 42 1009.4
20260508191614 51 326 5.2 9.6 0.00 0.00 0.00 42 1009.4
20260508191438 52 308 6.1 9.6 0.00 0.00 0.00 42 1009.4
20260508191341 52 329 4.3 9.6 0.00 0.00 0.00 42 1009.4
20260508191245 52 300 6.1 9.6 0.00 0.00 0.00 42 1009.4
20260508191126 52 342 4.3 9.6 0.00 0.00 0.00 45 1009.4
20260508191041 52 342 2.6 8.7 0.00 0.00 0.00 45 1009.4
20260508190945 51 344 1.7 9.6 0.00 0.00 0.00 44 1009.4
20260508190842 51 339 0.9 9.6 0.00 0.00 0.00 43 1009.4
20260508190727 51 314 1.7 9.6 0.00 0.00 0.00 43 1009.4
20260508190651 51 295 2.6 9.6 0.00 0.00 0.00 44 1009.4
20260508190611 51 319 6.1 9.6 0.00 0.00 0.00 45 1009.4
20260508190421 51 332 6.1 9.6 0.00 0.00 0.00 45 1009.4
20260508190337 51 345 5.2 9.6 0.00 0.00 0.00 44 1009.3
20260508190207 51 355 4.3 10.4 0.00 0.00 0.00 44 1009.3
20260508190119 51 348 2.6 10.4 0.00 0.00 0.00 44 1009.4
20260508185941 51 30 1.7 10.4 0.00 0.00 0.00 46 1009.4
20260508185905 51 342 3.5 10.4 0.00 0.00 0.00 45 1009.4
20260508185726 51 328 4.3 10.4 0.00 0.00 0.00 45 1009.4
20260508185648 51 288 4.3 10.4 0.00 0.00 0.00 44 1009.4
20260508185434 51 22 4.3 10.4 0.00 0.00 0.00 45 1009.4
20260508185358 51 27 2.6 7.0 0.00 0.00 0.00 44 1009.4
20260508185305 51 44 1.7 5.2 0.00 0.00 0.00 45 1009.5
20260508185144 51 166 1.7 5.2 0.00 0.00 0.00 43 1009.5
20260508185048 51 177 1.7 7.0 0.00 0.00 0.00 43 1009.5
20260508184930 51 298 2.6 7.0 0.00 0.00 0.00 43 1009.5
20260508184824 51 331 1.7 7.0 0.00 0.00 0.00 47 1009.5
20260508184744 51 19 1.7 7.0 0.00 0.00 0.00 44 1009.5
20260508184555 51 226 1.7 7.0 0.00 0.00 0.00 44 1009.5
20260508184432 51 68 2.6 7.0 0.00 0.00 0.00 44 1009.5
20260508184355 51 355 3.5 7.0 0.00 0.00 0.00 45 1009.5
20260508184240 51 298 4.3 7.0 0.00 0.00 0.00 45 1009.5
20260508184134 51 342 2.6 7.0 0.00 0.00 0.00 47 1009.5
20260508184037 51 312 1.7 7.0 0.00 0.00 0.00 47 1009.5
20260508183933 51 336 0.9 7.0 0.00 0.00 0.00 46 1009.5
20260508183827 51 332 1.7 7.0 0.00 0.00 0.00 47 1009.5
20260508183755 51 345 3.5 7.0 0.00 0.00 0.00 45 1009.5
20260508183716 51 344 3.5 7.0 0.00 0.00 0.00 47 1009.5
20260508183609 51 360 2.6 7.0 0.00 0.00 0.00 48 1009.5
20260508183530 50 29 0.9 3.5 0.00 0.00 0.00 49 1009.6
20260508183402 50 360 1.7 4.3 0.00 0.00 0.00 48 1009.6
20260508183255 50 9 1.7 5.2 0.00 0.00 0.00 46 1009.6
20260508183106 50 200 1.7 5.2 0.00 0.00 0.00 44 1009.6
20260508183027 50 221 1.7 5.2 0.00 0.00 0.00 44 1009.7
20260508182858 50 130 0.9 7.8 0.00 0.00 0.00 45 1009.7
20260508182729 50 41 1.7 7.8 0.00 0.00 0.00 45 1009.7
20260508182653 50 34 1.7 7.8 0.00 0.00 0.00 45 1009.7
20260508182540 50 40 3.5 9.6 0.00 0.00 0.00 45 1009.6
20260508182503 50 26 3.5 9.6 0.00 0.00 0.00 47 1009.6
20260508182429 50 27 2.6 10.4 0.00 0.00 0.00 47 1009.7
20260508182248 50 15 4.3 12.2 0.00 0.00 0.00 45 1009.7
20260508182148 50 5 5.2 12.2 0.00 0.00 0.00 45 1009.7
20260508181930 50 311 3.5 12.2 0.00 0.00 0.00 46 1009.8
20260508181852 50 325 3.5 12.2 0.00 0.00 0.00 45 1009.8
20260508181734 50 315 7.0 12.2 0.00 0.00 0.00 46 1009.8
20260508181659 50 329 6.1 12.2 0.00 0.00 0.00 46 1009.8
20260508181614 50 327 6.1 12.2 0.00 0.00 0.00 46 1009.8
20260508181428 50 325 6.1 12.2 0.00 0.00 0.00 46 1009.8
20260508181351 50 5 4.3 11.3 0.00 0.00 0.00 46 1009.8
20260508181233 50 330 6.1 11.3 0.00 0.00 0.00 47 1009.8
20260508181156 50 355 7.0 11.3 0.00 0.00 0.00 46 1009.8
20260508181118 50 5 7.0 11.3 0.00 0.00 0.00 47 1009.8
20260508180959 50 20 4.3 8.7 0.00 0.00 0.00 48 1009.8
20260508180841 50 348 3.5 7.0 0.00 0.00 0.00 48 1009.8
20260508180735 50 14 1.7 7.0 0.00 0.00 0.00 47 1009.8
20260508180659 50 5 1.7 7.0 0.00 0.00 0.00 47 1009.8
20260508180620 50 255 1.7 7.8 0.00 0.00 0.00 48 1009.8
20260508180443 50 282 2.6 7.8 0.00 0.00 0.00 48 1009.8
20260508180410 50 228 2.6 7.8 0.00 0.00 0.00 49 1009.9
20260508180230 50 318 3.5 7.8 0.00 0.00 0.00 48 1009.8
20260508180152 50 313 3.5 7.8 0.00 0.00 0.00 48 1009.8
20260508180055 50 332 3.5 7.8 0.00 0.00 0.00 47 1009.8
20260508175957 50 355 3.5 7.8 0.00 0.00 0.00 46 1009.8
20260508175920 50 345 3.5 7.8 0.00 0.00 0.00 47 1009.8
20260508175723 50 5 3.5 9.6 0.00 0.00 0.00 46 1009.8
20260508175626 50 290 3.5 9.6 0.00 0.00 0.00 47 1009.8
20260508175541 50 310 2.6 9.6 0.00 0.00 0.00 47 1009.8
20260508175502 50 302 3.5 9.6 0.00 0.00 0.00 46 1009.8
20260508175336 50 350 3.5 9.6 0.00 0.00 0.00 46 1009.8
20260508175229 50 315 1.7 9.6 0.00 0.00 0.00 46 1009.8
20260508175039 50 322 4.3 9.6 0.00 0.00 0.00 46 1009.8
20260508174952 50 331 4.3 9.6 0.00 0.00 0.00 49 1009.8
20260508174822 50 305 1.7 6.1 0.00 0.00 0.00 48 1009.8
20260508174743 50 200 2.6 6.1 0.00 0.00 0.00 47 1009.8
20260508174607 50 282 3.5 6.1 0.00 0.00 0.00 47 1009.7
20260508174528 50 212 3.5 7.0 0.00 0.00 0.00 47 1009.8
20260508174339 50 338 1.7 6.1 0.00 0.00 0.00 47 1009.8
20260508174234 50 242 0.9 6.1 0.00 0.00 0.00 49 1009.8
20260508174133 50 24 0.0 4.3 0.00 0.00 0.00 50 1009.9
20260508174054 49 34 0.0 4.3 0.00 0.00 0.00 50 1009.9
20260508174017 49 71 0.0 4.3 0.00 0.00 0.00 47 1009.8
20260508173900 49 87 0.9 4.3 0.00 0.00 0.00 49 1009.9
20260508173822 49 87 0.9 4.3 0.00 0.00 0.00 49 1009.9
20260508173626 49 5 1.7 4.3 0.00 0.00 0.00 48 1009.9
20260508173528 49 316 1.7 4.3 0.00 0.00 0.00 47 1010.0
20260508173432 49 302 2.6 4.3 0.00 0.00 0.00 47 1010.0
20260508173355 49 325 1.7 4.3 0.00 0.00 0.00 48 1010.0
20260508173317 49 299 0.9 4.3 0.00 0.00 0.00 48 1010.0
20260508173153 49 355 0.9 3.5 0.00 0.00 0.00 47 1010.0
20260508173048 49 346 0.9 3.5 0.00 0.00 0.00 48 1010.0
20260508172919 49 306 2.6 4.3 0.00 0.00 0.00 48 1010.0
20260508172841 49 349 1.7 4.3 0.00 0.00 0.00 47 1010.0
20260508172644 49 322 0.9 4.3 0.00 0.00 0.00 47 1010.0
20260508172606 49 294 1.7 4.3 0.00 0.00 0.00 49 1010.0
20260508172511 49 282 0.9 4.3 0.00 0.00 0.00 47 1010.0
20260508172433 49 263 1.7 4.3 0.00 0.00 0.00 47 1010.0
20260508172306 49 237 3.5 4.3 0.00 0.00 0.00 49 1010.0
20260508172157 49 258 2.6 4.3 0.00 0.00 0.00 48 1010.0
20260508172121 49 182 1.7 5.2 0.00 0.00 0.00 48 1010.0
20260508171936 49 280 0.9 7.0 0.00 0.00 0.00 47 1010.0
20260508171831 49 287 0.9 7.0 0.00 0.00 0.00 47 1010.0
20260508171752 49 350 0.9 7.0 0.00 0.00 0.00 47 1010.0
20260508171655 49 329 0.9 7.0 0.00 0.00 0.00 46 1010.0
20260508171625 49 329 0.9 7.0 0.00 0.00 0.00 45 1010.0
20260508171455 49 328 0.9 9.6 0.00 0.00 0.00 45 1010.0
20260508171328 49 328 2.6 9.6 0.00 0.00 0.00 47 1010.0
20260508171138 49 320 3.5 9.6 0.00 0.00 0.00 47 1010.0
20260508171035 49 309 3.5 9.6 0.00 0.00 0.00 48 1010.0
20260508170921 48 313 3.5 9.6 0.00 0.00 0.00 47 1010.0
20260508170844 48 300 4.3 9.6 0.00 0.00 0.00 47 1010.0
20260508170807 48 332 5.2 9.6 0.00 0.00 0.00 47 1010.0
20260508170650 48 341 4.3 9.6 0.00 0.00 0.00 48 1010.1
20260508170532 48 329 2.6 8.7 0.00 0.00 0.00 48 1010.0
20260508170435 48 350 0.9 8.7 0.00 0.00 0.00 48 1010.0
20260508170358 48 335 0.9 8.7 0.00 0.00 0.00 48 1010.0
20260508170321 48 335 0.9 8.7 0.00 0.00 0.00 48 1010.0
20260508170123 48 351 2.6 8.7 0.00 0.00 0.00 48 1010.0
20260508170044 48 355 3.5 8.7 0.00 0.00 0.00 47 1010.0
20260508165933 48 331 4.3 8.7 0.00 0.00 0.00 46 1010.0
20260508165854 48 295 5.2 8.7 0.00 0.00 0.00 48 1010.0
20260508165756 48 302 5.2 8.7 0.00 0.00 0.00 48 1010.0
20260508165700 48 342 5.2 7.8 0.00 0.00 0.00 48 1010.0
20260508165622 48 347 4.3 7.8 0.00 0.00 0.00 48 1010.0
20260508165430 48 317 3.5 7.0 0.00 0.00 0.00 48 1010.0
20260508165333 48 336 1.7 5.2 0.00 0.00 0.00 48 1010.0
20260508165245 48 24 1.7 5.2 0.00 0.00 0.00 48 1010.0
20260508165126 48 24 2.6 5.2 0.00 0.00 0.00 47 1010.0
20260508165030 48 10 2.6 5.2 0.00 0.00 0.00 48 1010.0
20260508164957 48 340 2.6 5.2 0.00 0.00 0.00 48 1010.0
20260508164919 48 355 2.6 5.2 0.00 0.00 0.00 47 1010.0
20260508164750 48 330 1.7 8.7 0.00 0.00 0.00 48 1010.0
20260508164644 48 26 1.7 8.7 0.00 0.00 0.00 47 1010.0
20260508164515 48 51 0.9 8.7 0.00 0.00 0.00 46 1010.0
20260508164437 48 13 0.9 8.7 0.00 0.00 0.00 46 1010.0
20260508164239 49 300 3.5 8.7 0.00 0.00 0.00 46 1010.0
20260508164202 49 311 4.3 8.7 0.00 0.00 0.00 46 1010.0
20260508164105 49 345 4.3 8.7 0.00 0.00 0.00 45 1010.0
20260508164027 49 342 5.2 8.7 0.00 0.00 0.00 45 1010.0
20260508163832 49 315 4.3 7.8 0.00 0.00 0.00 45 1010.0
20260508163738 49 347 3.5 7.8 0.00 0.00 0.00 46 1009.9
20260508163641 49 355 2.6 7.0 0.00 0.00 0.00 46 1009.9
20260508163544 49 301 2.6 7.0 0.00 0.00 0.00 47 1009.9
20260508163420 49 302 1.7 7.8 0.00 0.00 0.00 46 1010.0
20260508163335 49 340 1.7 7.8 0.00 0.00 0.00 46 1009.9
20260508163236 49 316 1.7 7.8 0.00 0.00 0.00 47 1009.9
20260508163201 49 322 2.6 7.8 0.00 0.00 0.00 47 1009.9
20260508163105 49 271 2.6 7.8 0.00 0.00 0.00 47 1009.9
20260508163031 49 288 2.6 7.8 0.00 0.00 0.00 48 1009.9
20260508162834 49 338 3.5 7.8 0.00 0.00 0.00 47 1009.9
20260508162738 49 326 4.3 7.8 0.00 0.00 0.00 48 1009.9
20260508162649 49 12 4.3 7.8 0.00 0.00 0.00 48 1009.9
20260508162613 49 347 4.3 8.7 0.00 0.00 0.00 48 1009.9
20260508162442 49 355 2.6 8.7 0.00 0.00 0.00 47 1009.9
20260508162335 49 336 2.6 8.7 0.00 0.00 0.00 46 1009.9
20260508162206 49 27 3.5 8.7 0.00 0.00 0.00 45 1009.9
20260508162128 49 19 4.3 8.7 0.00 0.00 0.00 46 1009.9
20260508161931 49 339 4.3 8.7 0.00 0.00 0.00 45 1009.9
20260508161838 49 330 5.2 8.7 0.00 0.00 0.00 45 1009.9
20260508161741 49 313 4.3 8.7 0.00 0.00 0.00 47 1010.0
20260508161644 49 319 3.5 9.6 0.00 0.00 0.00 48 1010.0
20260508161538 49 348 3.5 9.6 0.00 0.00 0.00 47 1009.9
20260508161502 49 347 3.5 9.6 0.00 0.00 0.00 47 1009.9
20260508161406 49 333 2.6 9.6 0.00 0.00 0.00 46 1009.9
20260508161329 49 327 2.6 9.6 0.00 0.00 0.00 46 1009.9
20260508161129 49 333 2.6 9.6 0.00 0.00 0.00 46 1009.9
20260508161036 49 298 4.3 9.6 0.00 0.00 0.00 47 1010.0
20260508160939 49 325 5.2 9.6 0.00 0.00 0.00 47 1010.0
20260508160842 49 309 5.2 9.6 0.00 0.00 0.00 49 1010.0
20260508160758 49 333 4.3 7.8 0.00 0.00 0.00 49 1010.0
20260508160629 49 325 2.6 7.0 0.00 0.00 0.00 48 1010.0
20260508160530 49 321 2.6 7.0 0.00 0.00 0.00 48 1010.0
20260508160335 48 316 1.7 7.0 0.00 0.00 0.00 49 1010.0
20260508160235 48 229 1.7 7.0 0.00 0.00 0.00 48 1010.0
20260508160140 48 228 1.7 7.0 0.00 0.00 0.00 49 1009.9
20260508160040 48 247 1.7 7.0 0.00 0.00 0.00 49 1009.9
20260508155915 48 308 2.6 7.0 0.00 0.00 0.00 49 1009.9
20260508155829 48 309 3.5 7.0 0.00 0.00 0.00 49 1010.0
20260508155614 48 310 3.5 7.0 0.00 0.00 0.00 47 1010.0
20260508155545 48 291 2.6 7.0 0.00 0.00 0.00 47 1010.0
20260508155425 48 325 3.5 7.0 0.00 0.00 0.00 48 1010.0
20260508155319 48 325 2.6 7.0 0.00 0.00 0.00 48 1010.0
20260508155129 48 275 2.6 7.0 0.00 0.00 0.00 49 1010.0
20260508155045 48 316 3.5 7.0 0.00 0.00 0.00 49 1010.0
20260508154917 48 244 2.6 7.0 0.00 0.00 0.00 49 1009.9
20260508154839 48 191 1.7 8.7 0.00 0.00 0.00 50 1009.9
20260508154713 48 198 1.7 8.7 0.00 0.00 0.00 48 1009.8
20260508154629 48 180 0.9 8.7 0.00 0.00 0.00 48 1010.0
20260508154438 48 318 1.7 8.7 0.00 0.00 0.00 49 1010.0
20260508154354 48 318 2.6 8.7 0.00 0.00 0.00 49 1010.0
20260508154226 48 257 3.5 8.7 0.00 0.00 0.00 48 1009.9
20260508154125 48 284 4.3 8.7 0.00 0.00 0.00 48 1009.9
20260508153928 48 318 6.1 8.7 0.00 0.00 0.00 48 1009.9
20260508153852 48 337 4.3 12.2 0.00 0.00 0.00 48 1009.9
20260508153733 48 348 3.5 12.2 0.00 0.00 0.00 47 1009.9
20260508153633 48 355 2.6 12.2 0.00 0.00 0.00 47 1009.9
20260508153601 48 342 1.7 12.2 0.00 0.00 0.00 48 1009.9
20260508153506 48 345 1.7 12.2 0.00 0.00 0.00 47 1009.8
20260508153427 49 333 3.5 12.2 0.00 0.00 0.00 46 1009.9
20260508153258 49 275 6.1 12.2 0.00 0.00 0.00 46 1009.9
20260508153132 49 289 5.2 12.2 0.00 0.00 0.00 47 1009.9
20260508153025 49 355 2.6 7.0 0.00 0.00 0.00 48 1009.8
20260508152948 49 223 3.5 8.7 0.00 0.00 0.00 47 1009.8
20260508152732 49 217 3.5 8.7 0.00 0.00 0.00 45 1009.8
20260508152633 49 5 3.5 8.7 0.00 0.00 0.00 45 1009.8
20260508152540 49 317 3.5 8.7 0.00 0.00 0.00 46 1009.8
20260508152442 49 294 4.3 8.7 0.00 0.00 0.00 47 1009.8
20260508152357 49 297 4.3 8.7 0.00 0.00 0.00 45 1009.8
20260508152226 49 14 5.2 8.7 0.00 0.00 0.00 46 1009.8
20260508152126 49 5 5.2 8.7 0.00 0.00 0.00 47 1009.8
20260508152008 49 360 2.6 8.7 0.00 0.00 0.00 49 1009.8
20260508151823 49 326 2.6 10.4 0.00 0.00 0.00 49 1009.8
20260508151725 49 333 5.2 10.4 0.00 0.00 0.00 48 1009.8
20260508151658 49 355 6.1 10.4 0.00 0.00 0.00 47 1009.8
20260508151618 49 344 6.1 10.4 0.00 0.00 0.00 47 1009.8
20260508151428 49 311 5.2 10.4 0.00 0.00 0.00 48 1009.8
20260508151323 49 330 6.1 10.4 0.00 0.00 0.00 47 1009.8
20260508151248 49 350 6.1 10.4 0.00 0.00 0.00 48 1009.8
20260508151205 49 344 4.3 10.4 0.00 0.00 0.00 48 1009.8
20260508151127 49 16 4.3 10.4 0.00 0.00 0.00 48 1009.7
20260508150930 49 326 4.3 8.7 0.00 0.00 0.00 48 1009.8
20260508150833 50 355 5.2 7.8 0.00 0.00 0.00 48 1009.8
20260508150731 50 323 7.0 7.8 0.00 0.00 0.00 47 1009.8
20260508150655 50 302 6.1 7.8 0.00 0.00 0.00 49 1009.8
20260508150539 50 351 3.5 7.8 0.00 0.00 0.00 48 1009.7
20260508150444 49 294 1.7 6.1 0.00 0.00 0.00 48 1009.7
20260508150337 49 307 0.9 6.1 0.00 0.00 0.00 48 1009.7
20260508150301 49 360 1.7 6.1 0.00 0.00 0.00 48 1009.7
20260508150204 49 341 1.7 6.1 0.00 0.00 0.00 48 1009.7
20260508150125 49 343 1.7 6.1 0.00 0.00 0.00 48 1009.7
20260508145928 49 275 3.5 6.1 0.00 0.00 0.00 50 1009.8
20260508145835 49 315 2.6 8.7 0.00 0.00 0.00 49 1009.8
20260508145739 49 341 2.6 8.7 0.00 0.00 0.00 49 1009.8
20260508145702 48 19 2.6 8.7 0.00 0.00 0.00 49 1009.8
20260508145523 48 38 2.6 8.7 0.00 0.00 0.00 48 1009.8
20260508145446 48 350 3.5 8.7 0.00 0.00 0.00 48 1009.8
20260508145408 48 349 3.5 8.7 0.00 0.00 0.00 49 1009.8
20260508145223 48 360 4.3 8.7 0.00 0.00 0.00 49 1009.9
20260508145144 48 24 4.3 8.7 0.00 0.00 0.00 49 1009.8
20260508145037 48 327 3.5 8.7 0.00 0.00 0.00 48 1009.9
20260508144945 48 321 0.9 6.1 0.00 0.00 0.00 48 1009.9
20260508144830 48 251 2.6 6.1 0.00 0.00 0.00 48 1009.9
20260508144751 48 260 4.3 6.1 0.00 0.00 0.00 49 1009.9
20260508144600 48 315 0.9 6.1 0.00 0.00 0.00 49 1010.0
20260508144433 47 139 1.7 9.6 0.00 0.00 0.00 49 1010.0
20260508144355 47 142 2.6 9.6 0.00 0.00 0.00 49 1010.0
20260508144258 47 202 2.6 9.6 0.00 0.00 0.00 49 1010.0
20260508144220 47 173 2.6 9.6 0.00 0.00 0.00 49 1010.0
20260508144023 47 141 4.3 9.6 0.00 0.00 0.00 48 1010.0
20260508143930 48 163 4.3 9.6 0.00 0.00 0.00 48 1010.1
20260508143835 48 205 3.5 9.6 0.00 0.00 0.00 48 1010.1
20260508143758 48 257 4.3 9.6 0.00 0.00 0.00 48 1010.1
20260508143606 48 298 3.5 9.6 0.00 0.00 0.00 49 1010.0
20260508143522 48 248 2.6 9.6 0.00 0.00 0.00 48 1010.1
20260508143331 47 209 1.7 9.6 0.00 0.00 0.00 48 1010.0
20260508143247 47 345 2.6 9.6 0.00 0.00 0.00 48 1010.0
20260508143037 47 28 4.3 9.6 0.00 0.00 0.00 49 1010.1
20260508142951 47 342 0.9 5.2 0.00 0.00 0.00 49 1010.1
20260508142759 47 211 0.9 4.3 0.00 0.00 0.00 48 1010.1
20260508142644 47 239 0.9 6.1 0.00 0.00 0.00 48 1010.1
20260508142521 47 243 0.9 7.0 0.00 0.00 0.00 48 1010.2
20260508142436 47 243 0.0 7.0 0.00 0.00 0.00 48 1010.2
20260508142357 47 243 0.0 7.0 0.00 0.00 0.00 48 1010.2
20260508142300 47 243 0.9 7.0 0.00 0.00 0.00 48 1010.2
20260508142125 47 240 2.6 7.0 0.00 0.00 0.00 47 1010.2
20260508142041 47 273 2.6 7.0 0.00 0.00 0.00 47 1010.2
20260508141912 47 253 2.6 7.0 0.00 0.00 0.00 47 1010.2
20260508141834 47 240 3.5 7.0 0.00 0.00 0.00 47 1010.2
20260508141710 47 248 3.5 7.0 0.00 0.00 0.00 46 1010.1
20260508141623 47 290 3.5 7.0 0.00 0.00 0.00 46 1010.1
20260508141435 46 237 1.7 5.2 0.00 0.00 0.00 46 1010.2
20260508141349 46 300 1.7 5.2 0.00 0.00 0.00 47 1010.2
20260508141208 46 329 1.7 8.7 0.00 0.00 0.00 47 1010.2
20260508141018 46 317 1.7 8.7 0.00 0.00 0.00 47 1010.2
20260508140934 45 265 0.9 8.7 0.00 0.00 0.00 47 1010.2
20260508140804 45 321 0.9 8.7 0.00 0.00 0.00 47 1010.2
20260508140724 45 321 0.9 8.7 0.00 0.00 0.00 47 1010.2
20260508140528 45 265 4.3 8.7 0.00 0.00 0.00 47 1010.3
20260508140452 45 286 5.2 8.7 0.00 0.00 0.00 47 1010.3
20260508140400 45 289 3.5 8.7 0.00 0.00 0.00 46 1010.3
20260508140241 45 221 1.7 7.0 0.00 0.00 0.00 47 1010.3
20260508140122 45 247 1.7 7.0 0.00 0.00 0.00 47 1010.2
20260508140045 45 213 2.6 7.0 0.00 0.00 0.00 47 1010.2
20260508140008 45 195 1.7 7.0 0.00 0.00 0.00 47 1010.3
20260508135912 45 267 1.7 7.0 0.00 0.00 0.00 46 1010.1
20260508135835 45 169 1.7 7.0 0.00 0.00 0.00 46 1010.1
20260508135705 45 319 0.9 7.0 0.00 0.00 0.00 46 1010.1
20260508135621 45 21 1.7 7.0 0.00 0.00 0.00 46 1010.2
20260508135451 45 223 3.5 7.0 0.00 0.00 0.00 46 1010.2
20260508135352 45 205 2.6 6.1 0.00 0.00 0.00 46 1010.2
20260508135205 45 237 2.6 6.1 0.00 0.00 0.00 45 1010.2
20260508135119 45 188 2.6 6.1 0.00 0.00 0.00 45 1010.2
20260508134931 45 240 1.7 6.1 0.00 0.00 0.00 45 1010.2
20260508134824 45 237 2.6 6.1 0.00 0.00 0.00 45 1010.2
20260508134747 45 248 3.5 7.0 0.00 0.00 0.00 45 1010.2
20260508134651 45 234 1.7 7.0 0.00 0.00 0.00 44 1010.2
20260508134552 45 214 0.9 7.0 0.00 0.00 0.00 44 1010.2
20260508134516 45 309 1.7 7.0 0.00 0.00 0.00 44 1010.3
20260508134420 45 255 1.7 8.7 0.00 0.00 0.00 44 1010.4
20260508134341 45 283 1.7 8.7 0.00 0.00 0.00 44 1010.4
20260508134211 45 338 2.6 8.7 0.00 0.00 0.00 44 1010.4
20260508134130 45 327 3.5 8.7 0.00 0.00 0.00 44 1010.4
20260508134001 45 260 2.6 8.7 0.00 0.00 0.00 42 1010.4
20260508133815 45 251 4.3 8.7 0.00 0.00 0.00 42 1010.4
20260508133727 45 324 4.3 8.7 0.00 0.00 0.00 42 1010.4
20260508133640 45 336 4.3 8.7 0.00 0.00 0.00 42 1010.3
20260508133544 45 249 2.6 5.2 0.00 0.00 0.00 42 1010.3
20260508133427 45 190 0.9 6.1 0.00 0.00 0.00 40 1010.3
20260508133350 45 355 0.0 7.0 0.00 0.00 0.00 41 1010.3
20260508133309 45 340 0.9 7.0 0.00 0.00 0.00 42 1010.3
20260508133118 45 309 1.7 7.0 0.00 0.00 0.00 39 1010.3
20260508132959 45 281 1.7 7.0 0.00 0.00 0.00 39 1010.3
20260508132841 45 268 1.7 7.0 0.00 0.00 0.00 41 1010.3
20260508132804 45 274 1.7 7.0 0.00 0.00 0.00 41 1010.3
20260508132718 45 225 2.6 7.0 0.00 0.00 0.00 41 1010.3
20260508132547 45 322 3.5 7.8 0.00 0.00 0.00 41 1010.3
20260508132449 45 315 4.3 7.8 0.00 0.00 0.00 41 1010.3
20260508132323 45 286 1.7 7.8 0.00 0.00 0.00 39 1010.2
20260508132229 45 331 2.6 7.8 0.00 0.00 0.00 39 1010.3
20260508132134 45 295 2.6 7.8 0.00 0.00 0.00 40 1010.2
20260508131945 45 319 2.6 7.8 0.00 0.00 0.00 39 1010.2
20260508131838 45 200 4.3 7.8 0.00 0.00 0.00 39 1010.2
20260508131743 45 240 3.5 7.8 0.00 0.00 0.00 38 1010.2
20260508131646 45 259 2.6 5.2 0.00 0.00 0.00 38 1010.2
20260508131529 45 327 2.6 7.8 0.00 0.00 0.00 39 1010.2
20260508131431 45 313 2.6 7.8 0.00 0.00 0.00 38 1010.2
20260508131354 45 322 2.6 7.8 0.00 0.00 0.00 38 1010.2
20260508131316 45 304 2.6 7.8 0.00 0.00 0.00 38 1010.2
20260508131124 45 307 2.6 7.8 0.00 0.00 0.00 37 1010.2
20260508131037 45 290 3.5 7.8 0.00 0.00 0.00 37 1010.2
20260508130909 45 317 3.5 8.7 0.00 0.00 0.00 37 1010.2
20260508130831 45 326 4.3 8.7 0.00 0.00 0.00 37 1010.2
20260508130633 45 302 2.6 8.7 0.00 0.00 0.00 34 1010.2
20260508130557 45 315 1.7 8.7 0.00 0.00 0.00 34 1010.2
20260508130500 45 282 0.9 8.7 0.00 0.00 0.00 30 1010.1
20260508130344 45 244 2.6 8.7 0.00 0.00 0.00 32 1010.1
20260508130227 45 259 3.5 8.7 0.00 0.00 0.00 32 1010.2
20260508130148 45 329 2.6 8.7 0.00 0.00 0.00 32 1010.2
20260508130019 45 325 0.9 5.2 0.00 0.00 0.00 31 1010.1
20260508125933 45 284 0.9 5.2 0.00 0.00 0.00 31 1010.1
20260508125718 45 284 0.9 5.2 0.00 0.00 0.00 32 1010.1
20260508125639 45 282 0.9 5.2 0.00 0.00 0.00 32 1010.1
20260508125445 45 161 3.5 5.2 0.00 0.00 0.00 29 1010.1
20260508125407 45 178 3.5 5.2 0.00 0.00 0.00 29 1010.1
20260508125311 45 164 3.5 5.2 0.00 0.00 0.00 30 1010.1
20260508125211 45 210 2.6 4.3 0.00 0.00 0.00 29 1010.1
20260508125022 45 59 0.9 4.3 0.00 0.00 0.00 20 1010.1
20260508124932 45 92 0.9 4.3 0.00 0.00 0.00 23 1010.1
20260508124724 45 360 0.9 4.3 0.00 0.00 0.00 25 1010.1
20260508124637 45 5 0.9 6.1 0.00 0.00 0.00 25 1010.1
20260508124509 45 255 0.9 6.1 0.00 0.00 0.00 24 1010.1
20260508124431 45 255 1.7 6.1 0.00 0.00 0.00 24 1010.1
20260508124233 45 236 1.7 6.1 0.00 0.00 0.00 24 1010.3
20260508124155 45 177 1.7 6.1 0.00 0.00 0.00 23 1010.3
20260508124040 44 244 1.7 6.1 0.00 0.00 0.00 22 1010.2
20260508124000 44 258 2.6 6.1 0.00 0.00 0.00 21 1010.2
20260508123840 44 225 3.5 6.1 0.00 0.00 0.00 20 1010.2
20260508123759 44 227 3.5 6.1 0.00 0.00 0.00 21 1010.1
20260508123610 44 148 3.5 6.1 0.00 0.00 0.00 22 1010.1
20260508123521 44 169 3.5 6.1 0.00 0.00 0.00 20 1010.1
20260508123349 44 180 3.5 6.1 0.00 0.00 0.00 20 1010.1
20260508123246 44 171 4.3 6.1 0.00 0.00 0.00 19 1010.1
20260508123026 44 184 2.6 4.3 0.00 0.00 0.00 12 1010.1
20260508122928 44 158 3.5 4.3 0.00 0.00 0.00 8 1010.1
20260508122832 44 203 3.5 4.3 0.00 0.00 0.00 6 1010.1
20260508122753 44 152 3.5 4.3 0.00 0.00 0.00 7 1010.1
20260508122715 44 187 2.6 5.2 0.00 0.00 0.00 3 1010.1
20260508122619 44 173 2.6 5.2 0.00 0.00 0.00 1 1010.0
20260508122354 44 136 1.7 4.3 0.00 0.00 0.00 1 1010.1
20260508122246 43 140 1.7 4.3 0.00 0.00 0.00 1 1010.1
20260508122117 43 165 1.7 5.2 0.00 0.00 0.00 1 1010.0
20260508122039 43 131 1.7 5.2 0.00 0.00 0.00 1 1010.0
20260508121911 43 154 1.7 5.2 0.00 0.00 0.00 1 1010.1
20260508121835 43 159 1.7 5.2 0.00 0.00 0.00 1 1010.1
20260508121625 43 159 2.6 5.2 0.00 0.00 0.00 1 1010.1
20260508121539 43 144 2.6 5.2 0.00 0.00 0.00 1 1010.0
20260508121443 43 162 2.6 5.2 0.00 0.00 0.00 1 1010.0
20260508121323 43 171 2.6 5.2 0.00 0.00 0.00 1 1010.0
20260508121237 43 165 2.6 5.2 0.00 0.00 0.00 1 1010.0
20260508121108 43 213 3.5 5.2 0.00 0.00 0.00 1 1010.0
20260508121029 43 184 3.5 5.2 0.00 0.00 0.00 1 1010.0
20260508120832 43 186 2.6 5.2 0.00 0.00 0.00 1 1010.0
20260508120754 42 178 3.5 5.2 0.00 0.00 0.00 1 1010.0
20260508120656 42 187 2.6 5.2 0.00 0.00 0.00 1 1010.0
20260508120619 42 178 1.7 5.2 0.00 0.00 0.00 1 1009.9
20260508120423 42 90 0.9 3.5 0.00 0.00 0.00 1 1009.8
20260508120326 42 88 1.7 3.5 0.00 0.00 0.00 1 1009.8
20260508120232 42 89 2.6 3.5 0.00 0.00 0.00 1 1009.8
20260508120154 42 92 2.6 3.5 0.00 0.00 0.00 1 1009.8
20260508120115 42 107 2.6 3.5 0.00 0.00 0.00 1 1009.8
20260508115947 41 140 0.9 2.6 0.00 0.00 0.00 1 1009.8
20260508115840 41 162 0.9 2.6 0.00 0.00 0.00 1 1009.8
20260508115743 41 113 0.0 2.6 0.00 0.00 0.00 1 1009.8
20260508115638 41 98 0.0 2.6 0.00 0.00 0.00 1 1009.8
20260508115538 40 99 0.0 2.6 0.00 0.00 0.00 1 1009.8
20260508115454 40 103 0.9 2.6 0.00 0.00 0.00 1 1009.8
20260508115406 40 103 0.9 2.6 0.00 0.00 0.00 1 1009.8
20260508115223 40 110 0.9 2.6 0.00 0.00 0.00 1 1009.8
20260508115126 39 110 0.9 2.6 0.00 0.00 0.00 1 1009.9
20260508115030 39 110 0.9 2.6 0.00 0.00 0.00 1 1009.8
20260508114953 39 110 1.7 2.6 0.00 0.00 0.00 1 1009.8
20260508114916 39 111 0.9 2.6 0.00 0.00 0.00 1 1009.8
20260508114739 39 14 0.9 2.6 0.00 0.00 0.00 1 1009.8
20260508114659 38 360 0.9 2.6 0.00 0.00 0.00 1 1009.8
20260508114531 38 107 1.7 3.5 0.00 0.00 0.00 1 1009.8
20260508114425 38 129 0.9 3.5 0.00 0.00 0.00 1 1009.8
20260508114243 38 337 0.0 3.5 0.00 0.00 0.00 1 1009.8
20260508114146 38 360 0.0 3.5 0.00 0.00 0.00 1 1009.8
20260508114055 38 106 0.9 3.5 0.00 0.00 0.00 1 1009.7
20260508114016 38 144 0.9 3.5 0.00 0.00 0.00 1 1009.7
20260508113846 38 180 1.7 3.5 0.00 0.00 0.00 1 1009.7
20260508113749 38 219 2.6 3.5 0.00 0.00 0.00 1 1009.7
20260508113645 38 227 1.7 3.5 0.00 0.00 0.00 1 1009.7
20260508113528 37 177 1.7 3.5 0.00 0.00 0.00 1 1009.7
20260508113451 37 173 1.7 3.5 0.00 0.00 0.00 1 1009.7
20260508113414 37 186 1.7 3.5 0.00 0.00 0.00 1 1009.8
20260508113237 37 211 0.9 3.5 0.00 0.00 0.00 1 1009.7
20260508113159 37 233 0.9 3.5 0.00 0.00 0.00 1 1009.7
20260508113117 37 213 0.0 0.9 0.00 0.00 0.00 1 1009.7
20260508112928 37 338 0.0 0.9 0.00 0.00 0.00 1 1009.7
20260508112844 37 332 0.0 0.9 0.00 0.00 0.00 1 1009.7
20260508112715 37 332 0.0 0.9 0.00 0.00 0.00 1 1009.7
20260508112614 37 331 0.0 0.9 0.00 0.00 0.00 1 1009.8
20260508112519 37 331 0.0 0.9 0.00 0.00 0.00 1 1009.7
20260508112442 37 331 0.0 0.9 0.00 0.00 0.00 1 1009.7
20260508112311 37 200 0.0 0.9 0.00 0.00 0.00 1 1009.7
20260508112225 37 200 0.0 0.9 0.00 0.00 0.00 1 1009.7
20260508112034 37 181 0.0 0.9 0.00 0.00 0.00 1 1009.6
20260508111951 37 65 0.0 0.9 0.00 0.00 0.00 1 1009.6
20260508111917 37 62 0.0 0.9 0.00 0.00 0.00 1 1009.6
20260508111733 37 36 0.0 0.9 0.00 0.00 0.00 1 1009.6
20260508111648 37 36 0.0 0.9 0.00 0.00 0.00 1 1009.6
20260508111508 36 36 0.0 0.9 0.00 0.00 0.00 1 1009.5
20260508111429 36 36 0.0 0.9 0.00 0.00 0.00 1 1009.5
20260508111232 36 36 0.0 0.9 0.00 0.00 0.00 1 1009.5
20260508111153 36 36 0.0 0.9 0.00 0.00 0.00 1 1009.5
20260508111058 36 36 0.0 0.9 0.00 0.00 0.00 1 1009.6
20260508110958 36 36 0.0 0.9 0.00 0.00 0.00 1 1009.6
20260508110900 36 36 0.0 1.7 0.00 0.00 0.00 1 1009.6
20260508110748 35 261 0.0 1.7 0.00 0.00 0.00 1 1009.5
20260508110648 35 261 0.0 1.7 0.00 0.00 0.00 1 1009.5
20260508110520 35 261 0.0 1.7 0.00 0.00 0.00 1 1009.5
20260508110414 35 261 0.0 1.7 0.00 0.00 0.00 1 1009.5
20260508110225 35 336 0.9 1.7 0.00 0.00 0.00 1 1009.4
20260508110138 35 340 0.9 1.7 0.00 0.00 0.00 1 1009.4
20260508105926 35 346 0.9 1.7 0.00 0.00 0.00 1 1009.4
20260508105843 34 32 0.0 0.9 0.00 0.00 0.00 1 1009.4
20260508105805 34 32 0.0 0.9 0.00 0.00 0.00 1 1009.4
20260508105727 34 267 0.0 0.9 0.00 0.00 0.00 1 1009.4
20260508105619 34 267 0.0 0.9 0.00 0.00 0.00 1 1009.4
20260508105434 34 267 0.0 0.9 0.00 0.00 0.00 1 1009.4
20260508105329 34 267 0.0 0.9 0.00 0.00 0.00 1 1009.4
20260508105224 34 350 0.0 0.9 0.00 0.00 0.00 1 1009.4
20260508105156 34 347 0.0 0.9 0.00 0.00 0.00 1 1009.4
20260508105117 34 313 0.0 0.9 0.00 0.00 0.00 1 1009.4
20260508105021 34 313 0.0 0.9 0.00 0.00 0.00 1 1009.3
20260508104943 34 253 0.0 0.9 0.00 0.00 0.00 1 1009.3
20260508104812 34 323 0.0 0.9 0.00 0.00 0.00 1 1009.4
20260508104727 34 323 0.0 0.9 0.00 0.00 0.00 1 1009.4
20260508104540 34 333 0.0 0.9 0.00 0.00 0.00 1 1009.3
20260508104504 34 336 0.0 0.9 0.00 0.00 0.00 1 1009.3
20260508104419 34 336 0.0 0.9 0.00 0.00 0.00 1 1009.4
20260508104229 34 312 0.0 0.9 0.00 0.00 0.00 1 1009.3
20260508104123 34 312 0.0 0.9 0.00 0.00 0.00 1 1009.2
20260508104046 34 311 0.0 0.9 0.00 0.00 0.00 1 1009.2
20260508103952 34 15 0.0 0.9 0.00 0.00 0.00 1 1009.2
20260508103915 34 15 0.0 0.9 0.00 0.00 0.00 1 1009.2
20260508103718 33 41 0.0 0.9 0.00 0.00 0.00 1 1009.2
20260508103635 33 41 0.0 0.9 0.00 0.00 0.00 1 1009.2
20260508103539 33 41 0.0 0.9 0.00 0.00 0.00 1 1009.2
20260508103443 33 308 0.0 0.9 0.00 0.00 0.00 1 1009.2
20260508103406 33 308 0.0 0.9 0.00 0.00 0.00 1 1009.2
20260508103308 33 308 0.0 0.9 0.00 0.00 0.00 1 1009.1
20260508103229 33 308 0.0 0.9 0.00 0.00 0.00 1 1009.1
20260508103033 33 305 0.0 1.7 0.00 0.00 0.00 1 1009.1
20260508102955 33 350 0.0 1.7 0.00 0.00 0.00 1 1009.1
20260508102837 33 350 0.0 1.7 0.00 0.00 0.00 1 1009.1
20260508102810 33 25 0.0 1.7 0.00 0.00 0.00 1 1009.1
20260508102714 33 25 0.0 1.7 0.00 0.00 0.00 1 1009.1
20260508102618 33 31 0.0 1.7 0.00 0.00 0.00 1 1009.1
20260508102540 33 34 0.0 1.7 0.00 0.00 0.00 1 1009.1
20260508102409 33 34 0.9 1.7 0.00 0.00 0.00 1 1009.1
20260508102323 33 337 0.0 1.7 0.00 0.00 0.00 1 1009.1
20260508102134 33 340 0.9 1.7 0.00 0.00 0.00 1 1009.0
20260508102047 32 340 0.9 1.7 0.00 0.00 0.00 1 1009.0
20260508101836 32 340 0.0 1.7 0.00 0.00 0.00 1 1009.0
20260508101751 32 340 0.0 1.7 0.00 0.00 0.00 1 1009.0
20260508101539 32 238 0.0 1.7 0.00 0.00 0.00 1 1009.0
20260508101439 32 238 0.9 1.7 0.00 0.00 0.00 1 1009.0
20260508101322 32 238 0.0 1.7 0.00 0.00 0.00 1 1009.0
20260508101244 32 237 0.0 0.0 0.00 0.00 0.00 1 1009.0
20260508101205 32 237 0.0 0.9 0.00 0.00 0.00 1 1009.0
20260508101110 32 237 0.0 0.9 0.00 0.00 0.00 1 1009.0
20260508101032 32 237 0.0 0.9 0.00 0.00 0.00 1 1009.0
20260508100836 32 237 0.0 0.9 0.00 0.00 0.00 1 1009.0
20260508100736 32 237 0.0 0.9 0.00 0.00 0.00 1 1009.0
20260508100624 31 323 0.0 0.9 0.00 0.00 0.00 1 1009.0
20260508100546 31 323 0.0 0.9 0.00 0.00 0.00 1 1009.0
20260508100448 31 323 0.0 0.9 0.00 0.00 0.00 1 1009.0
20260508100331 31 330 0.0 0.9 0.00 0.00 0.00 1 1009.0
20260508100255 31 344 0.0 0.9 0.00 0.00 0.00 1 1009.0
20260508100209 31 331 0.0 0.9 0.00 0.00 0.00 1 1009.0
20260508100031 31 355 0.0 0.9 0.00 0.00 0.00 1 1009.0
20260508095944 31 5 0.0 0.9 0.00 0.00 0.00 1 1009.0
20260508095734 31 5 0.0 0.9 0.00 0.00 0.00 1 1009.0
20260508095649 31 5 0.0 0.9 0.00 0.00 0.00 1 1008.9
20260508095444 31 5 0.0 0.0 0.00 0.00 0.00 1 1008.9
20260508095317 31 5 0.0 0.0 0.00 0.00 0.00 1 1008.8
20260508095249 31 5 0.0 0.0 0.00 0.00 0.00 1 1008.8
20260508095153 31 5 0.0 0.0 0.00 0.00 0.00 1 1008.8
20260508095033 31 5 0.0 0.0 0.00 0.00 0.00 1 1008.8
20260508094938 31 5 0.0 0.0 0.00 0.00 0.00 1 1008.9
20260508094840 31 5 0.0 0.0 0.00 0.00 0.00 1 1008.9
20260508094710 31 5 0.0 0.0 0.00 0.00 0.00 1 1008.9
20260508094624 31 5 0.0 0.0 0.00 0.00 0.00 1 1008.8
20260508094436 31 5 0.0 0.0 0.00 0.00 0.00 1 1008.9
20260508094400 31 5 0.0 0.0 0.00 0.00 0.00 1 1008.9
20260508094314 31 5 0.0 0.0 0.00 0.00 0.00 1 1008.9
20260508094125 31 5 0.0 0.0 0.00 0.00 0.00 1 1008.8
20260508094040 31 5 0.0 0.0 0.00 0.00 0.00 1 1008.8
20260508093944 31 5 0.0 0.0 0.00 0.00 0.00 1 1008.8
20260508093857 31 5 0.0 0.0 0.00 0.00 0.00 1 1008.7
20260508093800 31 5 0.0 0.0 0.00 0.00 0.00 1 1008.7
20260508093721 31 5 0.0 0.0 0.00 0.00 0.00 1 1008.7
20260508093604 31 5 0.0 0.0 0.00 0.00 0.00 1 1008.7
20260508093525 31 5 0.0 0.0 0.00 0.00 0.00 1 1008.7
20260508093340 31 5 0.0 0.0 0.00 0.00 0.00 1 1008.7
20260508093233 31 5 0.0 0.0 0.00 0.00 0.00 1 1008.7
20260508093157 31 5 0.0 0.0 0.00 0.00 0.00 1 1008.7
20260508093040 31 5 0.0 0.0 0.00 0.00 0.00 1 1008.7
20260508093004 31 5 0.0 0.0 0.00 0.00 0.00 1 1008.7
20260508092917 31 5 0.0 0.0 0.00 0.00 0.00 1 1008.7
20260508092747 31 5 0.0 0.0 0.00 0.00 0.00 1 1008.8
20260508092648 31 5 0.0 0.0 0.00 0.00 0.00 1 1008.8
20260508092528 31 5 0.0 0.0 0.00 0.00 0.00 1 1008.8
20260508092432 31 5 0.0 0.0 0.00 0.00 0.00 1 1008.8
20260508092353 31 5 0.0 0.0 0.00 0.00 0.00 1 1008.7
20260508092254 31 5 0.0 0.0 0.00 0.00 0.00 1 1008.7
20260508092138 31 5 0.0 0.0 0.00 0.00 0.00 1 1008.6
20260508092100 31 5 0.0 0.0 0.00 0.00 0.00 1 1008.7
20260508091923 31 5 0.0 0.0 0.00 0.00 0.00 1 1008.7
20260508091845 31 5 0.0 0.0 0.00 0.00 0.00 1 1008.7
20260508091630 31 5 0.0 0.0 0.00 0.00 0.00 1 1008.7
20260508091535 31 5 0.0 0.0 0.00 0.00 0.00 1 1008.7
20260508091437 31 5 0.0 0.0 0.00 0.00 0.00 1 1008.6
20260508091341 31 5 0.0 0.0 0.00 0.00 0.00 1 1008.6
20260508091234 31 5 0.0 0.0 0.00 0.00 0.00 1 1008.5
20260508091158 31 5 0.0 0.0 0.00 0.00 0.00 1 1008.5
20260508091024 31 5 0.0 0.0 0.00 0.00 0.00 1 1008.6
20260508090940 31 5 0.0 0.0 0.00 0.00 0.00 1 1008.6
20260508090839 31 5 0.0 0.0 0.00 0.00 0.00 1 1008.6
20260508090747 31 5 0.0 0.0 0.00 0.00 0.00 1 1008.6
20260508090709 31 5 0.0 0.0 0.00 0.00 0.00 1 1008.6
20260508090541 31 5 0.0 0.9 0.00 0.00 0.00 1 1008.6
20260508090433 31 5 0.0 0.9 0.00 0.00 0.00 1 1008.6
20260508090231 31 5 0.0 0.9 0.00 0.00 0.00 1 1008.6
20260508090133 31 5 0.0 0.9 0.00 0.00 0.00 1 1008.5
20260508085935 31 5 0.0 1.7 0.00 0.00 0.00 1 1008.6
20260508085859 31 5 0.0 1.7 0.00 0.00 0.00 1 1008.6
20260508085724 31 5 0.9 1.7 0.00 0.00 0.00 1 1008.5
20260508085637 31 5 0.9 1.7 0.00 0.00 0.00 1 1008.6
20260508085513 32 5 0.0 1.7 0.00 0.00 0.00 1 1008.6
20260508085435 32 5 0.0 1.7 0.00 0.00 0.00 1 1008.6
20260508085307 32 5 0.9 1.7 0.00 0.00 0.00 1 1008.6
20260508085219 32 5 0.9 1.7 0.00 0.00 0.00 1 1008.6
20260508085028 32 5 0.0 0.9 0.00 0.00 0.00 1 1008.6
20260508084943 32 5 0.0 0.9 0.00 0.00 0.00 1 1008.6
20260508084814 32 5 0.0 0.9 0.00 0.00 0.00 1 1008.5
20260508084737 32 5 0.0 0.9 0.00 0.00 0.00 1 1008.6
20260508084536 32 5 0.0 0.9 0.00 0.00 0.00 1 1008.6
20260508084500 32 5 0.0 0.9 0.00 0.00 0.00 1 1008.6
20260508084327 32 5 0.0 0.0 0.00 0.00 0.00 1 1008.5
20260508084242 32 5 0.0 0.0 0.00 0.00 0.00 1 1008.5
20260508084144 32 5 0.0 0.0 0.00 0.00 0.00 1 1008.6
20260508084048 32 5 0.0 0.0 0.00 0.00 0.00 1 1008.6
20260508084009 32 5 0.0 0.0 0.00 0.00 0.00 1 1008.5
20260508083839 32 5 0.0 0.0 0.00 0.00 0.00 1 1008.5
20260508083734 32 5 0.0 0.0 0.00 0.00 0.00 1 1008.5
20260508083604 32 5 0.0 0.0 0.00 0.00 0.00 1 1008.5
20260508083525 32 5 0.0 0.0 0.00 0.00 0.00 1 1008.5
20260508083330 32 5 0.0 0.0 0.00 0.00 0.00 1 1008.5
20260508083237 32 5 0.0 0.0 0.00 0.00 0.00 1 1008.5
20260508083139 32 5 0.0 0.0 0.00 0.00 0.00 1 1008.5
20260508083101 32 5 0.0 0.0 0.00 0.00 0.00 1 1008.5
20260508083024 32 5 0.0 0.0 0.00 0.00 0.00 1 1008.5
20260508082827 32 5 0.0 0.0 0.00 0.00 0.00 1 1008.5
20260508082750 32 5 0.0 0.0 0.00 0.00 0.00 1 1008.5
20260508082615 32 5 0.0 0.0 0.00 0.00 0.00 1 1008.4
20260508082539 32 5 0.0 0.0 0.00 0.00 0.00 1 1008.5
20260508082410 32 5 0.0 0.0 0.00 0.00 0.00 1 1008.5
20260508082336 32 5 0.0 0.0 0.00 0.00 0.00 1 1008.4
20260508082206 32 5 0.0 0.0 0.00 0.00 0.00 1 1008.4
20260508082121 32 5 0.0 0.0 0.00 0.00 0.00 1 1008.5
20260508081952 32 5 0.0 0.0 0.00 0.00 0.00 1 1008.5
20260508081826 32 5 0.0 0.0 0.00 0.00 0.00 1 1008.5
20260508081748 32 5 0.0 0.0 0.00 0.00 0.00 1 1008.5
20260508081709 32 5 0.0 0.0 0.00 0.00 0.00 1 1008.5
20260508081623 32 5 0.0 0.0 0.00 0.00 0.00 1 1008.4
20260508081504 32 5 0.0 0.0 0.00 0.00 0.00 1 1008.5
20260508081426 32 5 0.0 0.0 0.00 0.00 0.00 1 1008.4
20260508081229 32 5 0.0 1.7 0.00 0.00 0.00 1 1008.4
20260508081157 32 5 0.0 1.7 0.00 0.00 0.00 1 1008.4
20260508081040 32 5 0.0 1.7 0.00 0.00 0.00 1 1008.4
20260508081004 32 5 0.0 1.7 0.00 0.00 0.00 1 1008.4
20260508080825 32 5 0.0 1.7 0.00 0.00 0.00 1 1008.4
20260508080749 32 5 0.0 1.7 0.00 0.00 0.00 1 1008.4
20260508080711 32 5 0.0 1.7 0.00 0.00 0.00 1 1008.4
20260508080616 32 5 0.0 1.7 0.00 0.00 0.00 1 1008.4
20260508080537 32 5 0.0 1.7 0.00 0.00 0.00 1 1008.4
20260508080408 32 5 0.9 1.7 0.00 0.00 0.00 1 1008.4
20260508080226 32 360 0.0 1.7 0.00 0.00 0.00 1 1008.5
20260508080130 32 360 0.0 1.7 0.00 0.00 0.00 1 1008.4
20260508080018 32 360 0.0 1.7 0.00 0.00 0.00 1 1008.4
20260508075850 32 360 0.0 0.9 0.00 0.00 0.00 1 1008.5
20260508075742 32 360 0.0 0.9 0.00 0.00 0.00 1 1008.5
20260508075602 32 360 0.0 0.0 0.00 0.00 0.00 1 1008.4
20260508075523 32 360 0.0 0.0 0.00 0.00 0.00 1 1008.4
20260508075354 32 360 0.0 0.0 0.00 0.00 0.00 1 1008.4
20260508075230 32 360 0.0 0.0 0.00 0.00 0.00 1 1008.4
20260508075123 32 360 0.0 0.0 0.00 0.00 0.00 1 1008.4
20260508075045 32 360 0.0 0.0 0.00 0.00 0.00 1 1008.5
20260508074833 32 360 0.0 0.0 0.00 0.00 0.00 1 1008.4
20260508074735 32 360 0.0 0.0 0.00 0.00 0.00 1 1008.4
20260508074638 32 360 0.0 0.0 0.00 0.00 0.00 1 1008.4
20260508074558 32 360 0.0 0.0 0.00 0.00 0.00 1 1008.4
20260508074408 32 360 0.0 0.0 0.00 0.00 0.00 1 1008.3
20260508074222 32 360 0.0 0.0 0.00 0.00 0.00 1 1008.3
20260508074126 32 360 0.0 0.0 0.00 0.00 0.00 1 1008.3
20260508074047 32 360 0.0 0.0 0.00 0.00 0.00 1 1008.3
20260508073833 32 360 0.0 0.0 0.00 0.00 0.00 1 1008.2
20260508073756 32 360 0.0 0.0 0.00 0.00 0.00 1 1008.2
20260508073639 32 360 0.0 0.0 0.00 0.00 0.00 1 1008.3
20260508073543 32 360 0.0 0.0 0.00 0.00 0.00 1 1008.3
20260508073436 32 360 0.0 0.0 0.00 0.00 0.00 1 1008.2
20260508073339 32 360 0.0 0.0 0.00 0.00 0.00 1 1008.2
20260508073301 32 360 0.0 0.0 0.00 0.00 0.00 1 1008.2
20260508073222 32 360 0.0 0.0 0.00 0.00 0.00 1 1008.2
20260508073030 32 360 0.0 0.0 0.00 0.00 0.00 1 1008.3
20260508072930 32 360 0.0 0.0 0.00 0.00 0.00 1 1008.3
20260508072834 32 360 0.0 0.0 0.00 0.00 0.00 1 1008.3
20260508072756 32 360 0.0 0.0 0.00 0.00 0.00 1 1008.3
20260508072717 32 360 0.0 0.0 0.00 0.00 0.00 1 1008.3
20260508072540 32 360 0.0 0.0 0.00 0.00 0.00 1 1008.3
20260508072441 32 360 0.0 0.0 0.00 0.00 0.00 1 1008.3
20260508072344 32 360 0.0 0.0 0.00 0.00 0.00 1 1008.3
20260508072222 32 360 0.0 0.0 0.00 0.00 0.00 1 1008.2
20260508072125 32 360 0.0 0.0 0.00 0.00 0.00 1 1008.2
20260508072051 32 360 0.0 0.0 0.00 0.00 0.00 1 1008.2
20260508071834 32 360 0.0 0.0 0.00 0.00 0.00 1 1008.2
20260508071735 32 360 0.0 0.0 0.00 0.00 0.00 1 1008.2
20260508071638 32 360 0.0 0.0 0.00 0.00 0.00 1 1008.2
20260508071558 32 360 0.0 0.0 0.00 0.00 0.00 1 1008.2
20260508071430 32 360 0.0 0.0 0.00 0.00 0.00 1 1008.2
20260508071323 32 360 0.0 0.0 0.00 0.00 0.00 1 1008.2
20260508071132 32 360 0.0 0.0 0.00 0.00 0.00 1 1008.2
20260508071034 32 360 0.0 0.0 0.00 0.00 0.00 1 1008.2
20260508070837 33 360 0.0 0.0 0.00 0.00 0.00 1 1008.3
20260508070743 33 360 0.0 0.0 0.00 0.00 0.00 1 1008.3
20260508070627 33 360 0.0 0.0 0.00 0.00 0.00 1 1008.3
20260508070549 33 360 0.0 0.0 0.00 0.00 0.00 1 1008.3
20260508070431 33 360 0.0 0.0 0.00 0.00 0.00 1 1008.3
20260508070354 33 360 0.0 0.0 0.00 0.00 0.00 1 1008.3
20260508070316 33 360 0.0 0.0 0.00 0.00 0.00 1 1008.3
20260508070139 33 360 0.0 0.0 0.00 0.00 0.00 1 1008.3
20260508070040 33 360 0.0 0.0 0.00 0.00 0.00 1 1008.3
20260508065944 33 360 0.0 0.0 0.00 0.00 0.00 1 1008.3
20260508065844 33 360 0.0 0.0 0.00 0.00 0.00 1 1008.3
20260508065629 33 360 0.0 0.0 0.00 0.00 0.00 1 1008.2
20260508065534 33 360 0.0 0.0 0.00 0.00 0.00 1 1008.2
20260508065446 33 360 0.0 0.0 0.00 0.00 0.00 1 1008.3
20260508065335 33 360 0.0 0.0 0.00 0.00 0.00 1 1008.2
20260508065241 33 360 0.0 0.0 0.00 0.00 0.00 1 1008.2
20260508065202 33 360 0.0 0.0 0.00 0.00 0.00 1 1008.3
20260508065033 33 360 0.0 0.0 0.00 0.00 0.00 1 1008.2
20260508064925 33 360 0.0 0.0 0.00 0.00 0.00 1 1008.3
20260508064744 33 360 0.0 0.9 0.00 0.00 0.00 1 1008.3
20260508064645 33 360 0.0 0.9 0.00 0.00 0.00 1 1008.3
20260508064533 33 360 0.0 0.9 0.00 0.00 0.00 1 1008.3
20260508064444 33 360 0.0 0.9 0.00 0.00 0.00 1 1008.3
20260508064346 33 360 0.0 0.9 0.00 0.00 0.00 1 1008.3
20260508064251 33 360 0.0 0.9 0.00 0.00 0.00 1 1008.3
20260508064212 33 360 0.0 0.9 0.00 0.00 0.00 1 1008.3
20260508063951 33 360 0.0 0.9 0.00 0.00 0.00 1 1008.4
20260508063844 33 360 0.0 0.9 0.00 0.00 0.00 1 1008.4
20260508063715 33 360 0.0 0.9 0.00 0.00 0.00 1 1008.4
20260508063624 33 360 0.0 0.9 0.00 0.00 0.00 1 1008.4
20260508063427 33 360 0.0 0.9 0.00 0.00 0.00 1 1008.3
20260508063351 33 360 0.0 0.9 0.00 0.00 0.00 1 1008.3
20260508063237 33 360 0.0 0.9 0.00 0.00 0.00 1 1008.3
20260508063137 33 360 0.0 0.9 0.00 0.00 0.00 1 1008.3
20260508063102 33 360 0.0 0.0 0.00 0.00 0.00 1 1008.3
20260508063006 33 360 0.0 0.0 0.00 0.00 0.00 1 1008.3
20260508062927 33 360 0.0 0.0 0.00 0.00 0.00 1 1008.3
20260508062730 33 360 0.0 0.0 0.00 0.00 0.00 1 1008.3
20260508062633 33 360 0.0 0.0 0.00 0.00 0.00 1 1008.4
20260508062536 33 360 0.0 0.0 0.00 0.00 0.00 1 1008.3
20260508062459 33 360 0.0 0.0 0.00 0.00 0.00 1 1008.3
20260508062433 33 360 0.0 0.0 0.00 0.00 0.00 1 1008.4
20260508062242 33 360 0.0 0.0 0.00 0.00 0.00 1 1008.3
20260508062202 33 360 0.0 0.0 0.00 0.00 0.00 1 1008.3
20260508062107 33 360 0.0 0.0 0.00 0.00 0.00 1 1008.3
20260508062028 33 360 0.0 0.0 0.00 0.00 0.00 1 1008.4
20260508061837 33 360 0.0 0.0 0.00 0.00 0.00 1 1008.4
20260508061729 33 360 0.0 0.0 0.00 0.00 0.00 1 1008.3
20260508061539 33 360 0.0 0.0 0.00 0.00 0.00 1 1008.3
20260508061442 33 360 0.0 0.0 0.00 0.00 0.00 1 1008.3
20260508061336 33 360 0.0 0.0 0.00 0.00 0.00 1 1008.5
20260508061223 33 360 0.0 0.0 0.00 0.00 0.00 1 1008.4
20260508061144 33 360 0.0 0.0 0.00 0.00 0.00 1 1008.4
20260508061016 33 360 0.0 0.0 0.00 0.00 0.00 1 1008.4
20260508060907 33 360 0.0 0.0 0.00 0.00 0.00 1 1008.4
20260508060728 33 360 0.0 0.0 0.00 0.00 0.00 1 1008.5
20260508060641 33 360 0.0 0.0 0.00 0.00 0.00 1 1008.5
20260508060511 33 360 0.0 0.0 0.00 0.00 0.00 1 1008.4
20260508060433 33 360 0.0 0.0 0.00 0.00 0.00 1 1008.4
20260508060235 33 360 0.0 0.9 0.00 0.00 0.00 1 1008.5
20260508060157 33 360 0.0 0.9 0.00 0.00 0.00 1 1008.5
20260508060100 33 360 0.0 0.9 0.00 0.00 0.00 1 1008.5
20260508060006 33 360 0.0 0.9 0.00 0.00 0.00 1 1008.5
20260508055908 33 360 0.0 0.9 0.00 0.00 0.00 1 1008.5
20260508055731 33 360 0.0 0.9 0.00 0.00 0.00 1 1008.5
20260508055651 33 360 0.0 0.9 0.00 0.00 0.00 1 1008.5
20260508055554 33 360 0.0 0.9 0.00 0.00 0.00 1 1008.5
20260508055458 33 360 0.0 0.9 0.00 0.00 0.00 1 1008.5
20260508055420 34 360 0.9 0.9 0.00 0.00 0.00 1 1008.5
20260508055222 34 360 0.0 0.9 0.00 0.00 0.00 1 1008.5
20260508055123 34 360 0.0 0.9 0.00 0.00 0.00 1 1008.5
20260508055026 34 360 0.0 0.9 0.00 0.00 0.00 1 1008.5
20260508054954 34 360 0.0 0.0 0.00 0.00 0.00 1 1008.5
20260508054915 34 360 0.0 0.0 0.00 0.00 0.00 1 1008.5
20260508054739 34 360 0.0 0.0 0.00 0.00 0.00 1 1008.4
20260508054700 34 360 0.0 0.0 0.00 0.00 0.00 1 1008.4
20260508054423 34 360 0.0 0.0 0.00 0.00 0.00 1 1008.4
20260508054336 34 360 0.0 0.0 0.00 0.00 0.00 1 1008.4
20260508054247 34 360 0.0 0.0 0.00 0.00 0.00 1 1008.4
20260508054006 34 360 0.0 0.0 0.00 0.00 0.00 1 1008.5
20260508053921 34 360 0.0 0.0 0.00 0.00 0.00 1 1008.5
20260508053736 34 360 0.0 0.0 0.00 0.00 0.00 1 1008.5
20260508053659 34 360 0.0 0.0 0.00 0.00 0.00 1 1008.5
20260508053541 34 360 0.0 0.0 0.00 0.00 0.00 1 1008.6
20260508053441 34 360 0.0 0.0 0.00 0.00 0.00 1 1008.6
20260508053311 34 360 0.0 0.0 0.00 0.00 0.00 1 1008.5
20260508053225 34 360 0.0 0.0 0.00 0.00 0.00 1 1008.5
20260508053035 34 360 0.0 0.0 0.00 0.00 0.00 1 1008.5
20260508052952 34 360 0.0 0.0 0.00 0.00 0.00 1 1008.5
20260508052913 34 360 0.0 0.0 0.00 0.00 0.00 1 1008.5
20260508052726 34 360 0.0 0.0 0.00 0.00 0.00 1 1008.6
20260508052631 34 360 0.0 0.0 0.00 0.00 0.00 1 1008.6
20260508052533 34 360 0.0 0.0 0.00 0.00 0.00 1 1008.6
20260508052457 34 360 0.0 0.0 0.00 0.00 0.00 1 1008.6
20260508052418 34 360 0.0 0.0 0.00 0.00 0.00 1 1008.6
20260508052322 34 360 0.0 0.0 0.00 0.00 0.00 1 1008.6
20260508052244 34 360 0.0 0.0 0.00 0.00 0.00 1 1008.6
20260508052113 34 360 0.0 0.0 0.00 0.00 0.00 1 1008.6
20260508052027 34 360 0.0 0.0 0.00 0.00 0.00 1 1008.6
20260508051835 34 360 0.0 0.0 0.00 0.00 0.00 1 1008.6
20260508051735 34 360 0.0 0.0 0.00 0.00 0.00 1 1008.6
20260508051538 34 360 0.0 0.0 0.00 0.00 0.00 1 1008.6
20260508051446 34 360 0.0 0.0 0.00 0.00 0.00 1 1008.6
20260508051350 34 360 0.0 0.0 0.00 0.00 0.00 1 1008.7
20260508051231 34 360 0.0 0.0 0.00 0.00 0.00 1 1008.7
20260508051134 34 360 0.0 0.0 0.00 0.00 0.00 1 1008.7
20260508051057 34 360 0.0 0.0 0.00 0.00 0.00 1 1008.7
20260508050915 34 360 0.0 0.0 0.00 0.00 0.00 1 1008.7
20260508050831 34 360 0.0 0.0 0.00 0.00 0.00 1 1008.8
20260508050640 34 360 0.0 0.0 0.00 0.00 0.00 1 1008.8
20260508050537 35 360 0.0 0.0 0.00 0.00 0.00 1 1008.8
20260508050424 35 360 0.0 0.0 0.00 0.00 0.00 1 1008.8
20260508050345 35 360 0.0 0.0 0.00 0.00 0.00 1 1008.8
20260508050306 35 360 0.0 0.0 0.00 0.00 0.00 1 1008.8
20260508050138 34 360 0.0 0.0 0.00 0.00 0.00 1 1008.8
20260508050031 35 360 0.0 0.0 0.00 0.00 0.00 1 1008.8
20260508045840 35 360 0.0 0.0 0.00 0.00 0.00 1 1008.8
20260508045733 34 360 0.0 0.0 0.00 0.00 0.00 1 1008.9
20260508045656 34 360 0.0 0.0 0.00 0.00 0.00 1 1008.9
20260508045602 34 360 0.0 0.0 0.00 0.00 0.00 1 1008.8
20260508045523 34 360 0.0 0.0 0.00 0.00 0.00 1 1008.8
20260508045331 34 360 0.0 0.0 0.00 0.00 0.00 1 1008.8
20260508045232 34 360 0.0 0.0 0.00 0.00 0.00 1 1008.9
20260508045134 34 360 0.0 0.0 0.00 0.00 0.00 1 1008.9
20260508045056 34 360 0.0 0.0 0.00 0.00 0.00 1 1008.9
20260508045017 34 360 0.0 0.0 0.00 0.00 0.00 1 1008.8
20260508044920 34 360 0.0 0.0 0.00 0.00 0.00 1 1008.9
20260508044840 34 360 0.0 0.0 0.00 0.00 0.00 1 1008.9
20260508044710 34 360 0.0 0.0 0.00 0.00 0.00 1 1008.9
20260508044626 34 360 0.0 0.0 0.00 0.00 0.00 1 1008.9
20260508044456 34 360 0.0 0.0 0.00 0.00 0.00 1 1008.9
20260508044358 34 360 0.0 0.0 0.00 0.00 0.00 1 1008.9
20260508044311 34 360 0.0 0.0 0.00 0.00 0.00 1 1008.8
20260508044134 34 360 0.0 0.0 0.00 0.00 0.00 1 1008.9
20260508044034 34 360 0.0 0.0 0.00 0.00 0.00 1 1008.9
20260508043940 34 360 0.0 0.0 0.00 0.00 0.00 1 1008.9
20260508043840 34 360 0.0 0.0 0.00 0.00 0.00 1 1008.9
20260508043708 34 360 0.0 0.0 0.00 0.00 0.00 1 1008.9
20260508043624 34 360 0.0 0.0 0.00 0.00 0.00 1 1009.0
20260508043433 34 360 0.0 0.0 0.00 0.00 0.00 1 1009.0
20260508043327 34 360 0.0 0.0 0.00 0.00 0.00 1 1008.9
20260508043249 34 360 0.0 0.0 0.00 0.00 0.00 1 1008.9
20260508043126 34 360 0.0 0.0 0.00 0.00 0.00 1 1009.0
20260508043041 35 360 0.0 0.0 0.00 0.00 0.00 1 1009.0
20260508042911 35 360 0.0 0.0 0.00 0.00 0.00 1 1009.0
20260508042833 35 360 0.0 0.0 0.00 0.00 0.00 1 1009.0
20260508042635 35 360 0.0 0.0 0.00 0.00 0.00 1 1009.0
20260508042559 35 360 0.0 0.0 0.00 0.00 0.00 1 1009.0
20260508042424 35 360 0.0 0.9 0.00 0.00 0.00 1 1009.0
20260508042338 35 360 0.0 0.9 0.00 0.00 0.00 1 1009.0
20260508042245 35 360 0.0 0.9 0.00 0.00 0.00 1 1009.0
20260508042207 35 360 0.0 0.9 0.00 0.00 0.00 1 1009.0
20260508042122 35 360 0.0 0.9 0.00 0.00 0.00 1 1009.0
20260508041934 35 360 0.0 0.9 0.00 0.00 0.00 1 1009.0
20260508041827 35 360 0.0 0.9 0.00 0.00 0.00 1 1009.0
20260508041749 35 360 0.0 0.9 0.00 0.00 0.00 1 1009.0
20260508041654 35 360 0.0 0.9 0.00 0.00 0.00 1 1009.0
20260508041617 35 360 0.0 0.9 0.00 0.00 0.00 1 1009.0
20260508041446 35 360 0.0 0.9 0.00 0.00 0.00 1 1009.0
20260508041342 35 360 0.0 0.9 0.00 0.00 0.00 1 1009.0
20260508041304 35 360 0.0 0.9 0.00 0.00 0.00 1 1008.9
20260508041208 35 360 0.0 0.9 0.00 0.00 0.00 1 1009.0
20260508041123 35 360 0.0 0.9 0.00 0.00 0.00 1 1009.0
20260508040933 35 360 0.0 0.9 0.00 0.00 0.00 1 1009.0
20260508040849 35 360 0.0 0.9 0.00 0.00 0.00 1 1009.0
20260508040822 35 360 0.0 0.9 0.00 0.00 0.00 1 1008.9
20260508040634 35 360 0.0 0.9 0.00 0.00 0.00 1 1009.0
20260508040527 35 360 0.0 0.0 0.00 0.00 0.00 1 1008.9
20260508040452 35 360 0.0 0.0 0.00 0.00 0.00 1 1008.9
20260508040355 35 360 0.0 0.0 0.00 0.00 0.00 1 1009.0
20260508040242 35 360 0.0 0.0 0.00 0.00 0.00 1 1009.0
20260508040125 35 360 0.0 0.0 0.00 0.00 0.00 1 1009.0
20260508040049 35 360 0.0 0.0 0.00 0.00 0.00 1 1009.0
20260508035924 35 360 0.0 0.0 0.00 0.00 0.00 1 1008.9
20260508035830 35 360 0.0 0.0 0.00 0.00 0.00 1 1008.9
20260508035750 35 360 0.0 0.0 0.00 0.00 0.00 1 1008.9
20260508035622 35 360 0.0 0.0 0.00 0.00 0.00 1 1008.9
20260508035536 35 360 0.0 0.0 0.00 0.00 0.00 1 1008.9
20260508035326 35 360 0.0 0.0 0.00 0.00 0.00 1 1008.9
20260508035223 35 360 0.0 0.0 0.00 0.00 0.00 1 1008.8
20260508035146 36 360 0.0 0.0 0.00 0.00 0.00 1 1008.8
20260508035041 35 360 0.0 0.0 0.00 0.00 0.00 1 1008.8
20260508034945 36 360 0.0 0.0 0.00 0.00 0.00 1 1008.8
20260508034828 36 360 0.0 0.0 0.00 0.00 0.00 1 1008.9
20260508034750 36 360 0.0 0.0 0.00 0.00 0.00 1 1008.9
20260508034632 36 360 0.0 0.0 0.00 0.00 0.00 1 1008.9
20260508034554 36 360 0.0 0.0 0.00 0.00 0.00 1 1008.9
20260508034517 36 360 0.0 0.0 0.00 0.00 0.00 1 1008.9
20260508034344 36 360 0.0 0.0 0.00 0.00 0.00 1 1008.9
20260508034225 36 360 0.0 0.0 0.00 0.00 0.00 1 1008.9
20260508034139 36 360 0.0 0.0 0.00 0.00 0.00 1 1008.9
20260508034040 36 360 0.0 0.0 0.00 0.00 0.00 1 1008.9
20260508033943 36 360 0.0 0.0 0.00 0.00 0.00 1 1008.9
20260508033846 36 360 0.0 0.0 0.00 0.00 0.00 1 1008.9
20260508033807 36 360 0.0 0.0 0.00 0.00 0.00 1 1008.8
20260508033641 36 360 0.0 0.0 0.00 0.00 0.00 1 1008.9
20260508033543 36 360 0.0 0.0 0.00 0.00 0.00 1 1008.9
20260508033429 36 360 0.0 0.0 0.00 0.00 0.00 1 1008.9
20260508033349 36 360 0.0 0.0 0.00 0.00 0.00 1 1008.9
20260508033220 36 360 0.0 0.0 0.00 0.00 0.00 1 1008.8
20260508033115 36 360 0.0 0.0 0.00 0.00 0.00 1 1008.8
20260508032924 36 360 0.0 0.0 0.00 0.00 0.00 1 1008.8
20260508032839 36 360 0.0 0.0 0.00 0.00 0.00 1 1008.8
20260508032709 36 360 0.0 0.0 0.00 0.00 0.00 1 1008.8
20260508032630 36 360 0.0 0.0 0.00 0.00 0.00 1 1008.9
20260508032433 36 360 0.0 0.9 0.00 0.00 0.00 1 1008.9
20260508032357 36 360 0.0 0.9 0.00 0.00 0.00 1 1008.9
20260508032225 36 360 0.0 0.9 0.00 0.00 0.00 1 1008.9
20260508032141 36 360 0.0 0.9 0.00 0.00 0.00 1 1008.9
20260508031929 36 360 0.0 0.9 0.00 0.00 0.00 1 1008.8
20260508031842 36 360 0.0 0.9 0.00 0.00 0.00 1 1008.9
20260508031714 36 360 0.0 0.9 0.00 0.00 0.00 1 1008.8
20260508031636 36 360 0.0 0.0 0.00 0.00 0.00 1 1008.8
20260508031506 36 360 0.0 0.0 0.00 0.00 0.00 1 1008.8
20260508031420 36 360 0.0 0.0 0.00 0.00 0.00 1 1008.8
20260508031231 36 360 0.0 0.0 0.00 0.00 0.00 1 1008.8
20260508031145 36 360 0.0 0.0 0.00 0.00 0.00 1 1008.8
20260508031020 36 360 0.0 0.0 0.00 0.00 0.00 1 1008.8
20260508030941 36 360 0.0 0.0 0.00 0.00 0.00 1 1008.8
20260508030805 36 360 0.0 0.0 0.00 0.00 0.00 1 1008.7
20260508030728 36 360 0.0 0.0 0.00 0.00 0.00 1 1008.6
20260508030557 36 360 0.0 0.0 0.00 0.00 0.00 1 1008.7
20260508030500 36 360 0.0 0.0 0.00 0.00 0.00 1 1008.7
20260508030416 36 360 0.0 0.0 0.00 0.00 0.00 1 1008.7
20260508030225 36 360 0.0 0.0 0.00 0.00 0.00 1 1008.7
20260508030139 36 360 0.0 0.0 0.00 0.00 0.00 1 1008.7
20260508030041 36 360 0.0 0.0 0.00 0.00 0.00 1 1008.7
20260508025945 36 360 0.0 0.0 0.00 0.00 0.00 1 1008.7
20260508025850 36 360 0.0 0.0 0.00 0.00 0.00 1 1008.7
20260508025721 36 360 0.0 0.0 0.00 0.00 0.00 1 1008.7
20260508025635 36 360 0.0 0.0 0.00 0.00 0.00 1 1008.8
20260508025506 36 360 0.0 0.0 0.00 0.00 0.00 1 1008.8
20260508025428 36 360 0.0 0.0 0.00 0.00 0.00 1 1008.8
20260508025230 36 360 0.0 0.0 0.00 0.00 0.00 1 1008.8
20260508025151 36 360 0.0 0.0 0.00 0.00 0.00 1 1008.8
20260508025036 36 360 0.0 0.0 0.00 0.00 0.00 1 1008.7
20260508024930 36 360 0.0 0.0 0.00 0.00 0.00 1 1008.8
20260508024852 36 360 0.0 0.0 0.00 0.00 0.00 1 1008.8
20260508024818 36 360 0.0 0.0 0.00 0.00 0.00 1 1008.8
20260508024719 36 360 0.0 0.0 0.00 0.00 0.00 1 1008.8
20260508024521 37 360 0.0 0.0 0.00 0.00 0.00 1 1008.9
20260508024445 37 360 0.0 0.0 0.00 0.00 0.00 1 1008.9
20260508024349 37 360 0.0 0.0 0.00 0.00 0.00 1 1008.9
20260508024310 37 360 0.0 0.0 0.00 0.00 0.00 1 1008.9
20260508024118 37 360 0.0 0.0 0.00 0.00 0.00 1 1008.9
20260508024011 37 360 0.0 0.0 0.00 0.00 0.00 1 1008.9
20260508023818 37 360 0.0 0.0 0.00 0.00 0.00 1 1008.9
20260508023740 37 360 0.0 0.0 0.00 0.00 0.00 1 1008.9
20260508023550 37 360 0.0 0.0 0.00 0.00 0.00 1 1008.9
20260508023429 37 360 0.0 0.0 0.00 0.00 0.00 1 1008.8
20260508023332 37 360 0.0 0.0 0.00 0.00 0.00 1 1008.8
20260508023306 37 360 0.0 0.0 0.00 0.00 0.00 1 1008.8
20260508023204 37 360 0.0 0.0 0.00 0.00 0.00 1 1008.9
20260508023108 37 360 0.0 0.0 0.00 0.00 0.00 1 1008.8
20260508023030 37 360 0.0 0.0 0.00 0.00 0.00 1 1008.9
20260508022834 37 360 0.0 0.0 0.00 0.00 0.00 1 1008.9
20260508022736 37 360 0.0 0.0 0.00 0.00 0.00 1 1008.9
20260508022639 37 360 0.0 0.0 0.00 0.00 0.00 1 1008.9
20260508022547 37 360 0.0 0.0 0.00 0.00 0.00 1 1008.9
20260508022510 37 360 0.0 0.0 0.00 0.00 0.00 1 1008.9
20260508022332 37 360 0.0 0.0 0.00 0.00 0.00 1 1008.9
20260508022255 37 360 0.0 0.0 0.00 0.00 0.00 1 1008.9
20260508022130 37 360 0.0 0.0 0.00 0.00 0.00 1 1008.9
20260508022002 37 360 0.0 0.0 0.00 0.00 0.00 1 1008.8
20260508021835 37 360 0.0 0.0 0.00 0.00 0.00 1 1008.8
20260508021756 37 360 0.0 0.0 0.00 0.00 0.00 1 1008.8
20260508021640 37 360 0.0 0.0 0.00 0.00 0.00 1 1008.8
20260508021608 37 360 0.0 0.0 0.00 0.00 0.00 1 1008.8
20260508021423 37 360 0.0 0.0 0.00 0.00 0.00 1 1008.8
20260508021326 37 360 0.0 0.0 0.00 0.00 0.00 1 1008.8
20260508021249 37 360 0.0 0.0 0.00 0.00 0.00 1 1008.8
20260508021209 38 360 0.0 0.0 0.00 0.00 0.00 1 1008.8
20260508021054 38 360 0.0 0.0 0.00 0.00 0.00 1 1008.8
20260508020935 38 360 0.0 0.0 0.00 0.00 0.00 1 1008.8
20260508020838 38 360 0.0 0.0 0.00 0.00 0.00 1 1008.8
20260508020802 38 360 0.0 0.0 0.00 0.00 0.00 1 1008.8
20260508020724 38 360 0.0 0.0 0.00 0.00 0.00 1 1008.8
20260508020610 38 360 0.0 0.0 0.00 0.00 0.00 1 1008.7
20260508020424 38 360 0.0 0.0 0.00 0.00 0.00 1 1008.7
20260508020329 38 360 0.0 0.0 0.00 0.00 0.00 1 1008.7
20260508020250 38 360 0.0 0.0 0.00 0.00 0.00 1 1008.7
20260508020031 38 360 0.0 0.0 0.00 0.00 0.00 1 1008.6
20260508015934 38 360 0.0 0.0 0.00 0.01 0.00 1 1008.6
20260508015837 38 360 0.0 0.0 0.00 0.01 0.00 1 1008.8
20260508015759 38 360 0.0 0.0 0.00 0.01 0.00 1 1008.8
20260508015719 38 360 0.0 0.0 0.00 0.01 0.00 1 1008.7
20260508015536 38 360 0.0 0.0 0.00 0.01 0.00 1 1008.7
20260508015459 38 360 0.0 0.0 0.00 0.01 0.00 1 1008.7
20260508015325 38 360 0.0 0.0 0.00 0.01 0.00 1 1008.6
20260508015239 39 360 0.0 0.0 0.00 0.01 0.00 1 1008.6
20260508015109 39 360 0.0 0.0 0.00 0.01 0.00 1 1008.6
20260508015030 39 360 0.0 0.0 0.00 0.01 0.00 1 1008.6
20260508014813 39 360 0.0 0.0 0.00 0.01 0.00 1 1008.6
20260508014746 39 360 0.0 0.0 0.00 0.01 0.00 1 1008.6
20260508014614 39 360 0.0 0.0 0.00 0.01 0.00 1 1008.6
20260508014540 39 360 0.0 0.0 0.00 0.01 0.00 1 1008.6
20260508014442 39 360 0.0 0.0 0.00 0.01 0.00 1 1008.5
20260508014325 39 360 0.0 0.0 0.00 0.01 0.00 1 1008.5
20260508014248 39 360 0.0 0.0 0.00 0.01 0.00 1 1008.5
20260508014123 39 360 0.0 0.9 0.00 0.01 0.00 1 1008.5
20260508014026 39 360 0.0 0.9 0.00 0.01 0.00 1 1008.5
20260508013953 39 360 0.0 0.9 0.00 0.01 0.00 1 1008.5
20260508013735 39 360 0.0 0.9 0.00 0.01 0.00 1 1008.5
20260508013638 39 360 0.0 0.9 0.00 0.01 0.00 1 1008.4
20260508013541 39 360 0.0 0.9 0.00 0.01 0.00 1 1008.5
20260508013505 39 360 0.0 0.9 0.00 0.01 0.00 1 1008.5
20260508013426 39 360 0.0 0.9 0.00 0.01 0.00 1 1008.4
20260508013228 40 360 0.0 0.9 0.00 0.01 0.00 1 1008.4
20260508013151 40 360 0.0 0.0 0.00 0.01 0.00 1 1008.4
20260508013034 40 360 0.0 0.0 0.00 0.01 0.00 1 1008.3
20260508013000 40 360 0.0 0.0 0.00 0.01 0.00 1 1008.3
20260508012923 40 360 0.0 0.0 0.00 0.01 0.00 1 1008.4
20260508012724 40 360 0.0 0.0 0.00 0.01 0.00 1 1008.4
20260508012648 40 360 0.0 0.0 0.00 0.01 0.00 1 1008.4
20260508012532 40 360 0.0 0.0 0.00 0.01 0.00 1 1008.4
20260508012455 40 360 0.0 0.0 0.00 0.01 0.00 1 1008.4
20260508012340 40 360 0.0 0.0 0.00 0.01 0.00 1 1008.4
20260508012239 40 360 0.0 0.0 0.00 0.01 0.00 1 1008.4
20260508012111 40 360 0.0 0.9 0.00 0.01 0.00 1 1008.4
20260508012005 40 360 0.0 0.9 0.00 0.01 0.00 1 1008.4
20260508011925 40 360 0.0 0.9 0.00 0.01 0.00 1 1008.4
20260508011738 40 360 0.0 0.9 0.00 0.01 0.00 1 1008.4
20260508011631 40 360 0.0 0.9 0.00 0.01 0.00 1 1008.4
20260508011442 41 360 0.0 0.9 0.00 0.01 0.00 1 1008.4
20260508011339 41 360 0.0 0.9 0.00 0.01 0.00 1 1008.3
20260508011233 41 360 0.0 0.9 0.00 0.01 0.00 2 1008.3
20260508011134 41 360 0.0 0.0 0.00 0.01 0.00 2 1008.3
20260508011050 41 360 0.0 0.0 0.00 0.01 0.00 2 1008.3
20260508010951 41 360 0.0 0.0 0.00 0.01 0.00 2 1008.3
20260508010825 41 360 0.0 0.0 0.00 0.01 0.00 4 1008.2
20260508010718 41 360 0.0 0.0 0.00 0.01 0.00 5 1008.2
20260508010530 41 360 0.0 0.0 0.00 0.01 0.00 7 1008.2
20260508010444 41 360 0.0 0.0 0.00 0.01 0.00 7 1008.2
20260508010314 42 360 0.0 0.0 0.00 0.01 0.00 7 1008.2
20260508010236 42 360 0.0 0.0 0.00 0.01 0.00 8 1008.2
20260508010100 42 360 0.0 0.0 0.00 0.01 0.00 8 1008.2
20260508010022 42 360 0.0 0.0 0.00 0.01 0.00 8 1008.2
20260508005833 42 360 0.0 0.0 0.00 0.05 0.00 9 1008.2
20260508005726 42 360 0.0 0.0 0.00 0.05 0.00 9 1008.1
20260508005654 42 360 0.0 0.0 0.00 0.05 0.00 10 1008.1
20260508005558 42 360 0.0 0.0 0.00 0.05 0.00 9 1008.1
20260508005458 42 360 0.0 0.0 0.00 0.05 0.00 8 1008.1
20260508005400 42 360 0.0 0.0 0.00 0.05 0.00 8 1008.1
20260508005305 43 360 0.0 0.0 0.00 0.05 0.00 10 1008.1
20260508005202 43 360 0.0 0.0 0.00 0.05 0.00 11 1008.1
20260508005124 43 360 0.0 0.0 0.00 0.05 0.00 11 1008.1
20260508004926 43 360 0.0 0.0 0.00 0.05 0.00 14 1008.1
20260508004850 43 360 0.0 0.0 0.00 0.05 0.00 14 1008.1
20260508004732 43 360 0.0 0.0 0.00 0.05 0.00 14 1008.1
20260508004654 43 360 0.0 0.0 0.00 0.05 0.00 14 1008.1
20260508004621 43 360 0.0 0.0 0.00 0.05 0.00 14 1008.0
20260508004424 43 360 0.0 0.0 0.00 0.05 0.00 16 1008.0
20260508004345 43 360 0.0 0.0 0.00 0.05 0.00 16 1008.0
20260508004244 43 360 0.0 0.0 0.00 0.05 0.00 21 1008.0
20260508004141 43 360 0.0 0.0 0.00 0.05 0.00 22 1008.0
20260508004010 43 360 0.0 0.0 0.00 0.05 0.00 21 1007.9
20260508003922 44 360 0.0 0.0 0.00 0.05 0.00 21 1008.0
20260508003730 44 360 0.0 0.0 0.00 0.05 0.00 22 1007.9
20260508003642 44 360 0.0 0.0 0.00 0.05 0.00 23 1007.9
20260508003510 44 360 0.0 0.0 0.00 0.05 0.00 24 1007.9
20260508003428 44 360 0.0 0.0 0.00 0.05 0.00 25 1007.9
20260508003235 44 360 0.0 0.9 0.00 0.05 0.00 26 1007.8
20260508003159 44 360 0.0 0.9 0.00 0.05 0.00 26 1007.8
20260508003045 44 360 0.0 0.9 0.00 0.05 0.00 26 1007.8
20260508002946 44 360 0.0 0.9 0.00 0.05 0.00 26 1007.8
20260508002818 44 360 0.0 0.9 0.00 0.05 0.00 26 1007.8
20260508002733 44 360 0.0 0.9 0.00 0.05 0.00 26 1007.8
20260508002603 45 360 0.0 0.9 0.00 0.05 0.00 26 1007.8
20260508002505 45 360 0.0 0.9 0.00 0.05 0.00 26 1007.8
20260508002421 45 360 0.0 0.9 0.00 0.05 0.00 25 1007.8
20260508002250 45 360 0.9 0.9 0.00 0.05 0.00 24 1007.8
20260508002151 45 360 0.0 0.9 0.00 0.05 0.00 22 1007.8
20260508002035 45 360 0.0 0.0 0.00 0.05 0.00 20 1007.8
20260508001956 45 360 0.0 0.0 0.00 0.05 0.00 19 1007.8
20260508001836 45 360 0.0 0.0 0.00 0.05 0.00 21 1007.8
20260508001755 45 360 0.0 0.0 0.00 0.05 0.00 22 1007.8
20260508001635 46 360 0.0 0.0 0.00 0.05 0.00 23 1007.8
20260508001556 46 360 0.0 0.0 0.00 0.05 0.00 23 1007.8
20260508001438 46 360 0.0 0.0 0.00 0.05 0.00 25 1007.8
20260508001340 46 360 0.0 0.0 0.00 0.05 0.00 25 1007.8
20260508001159 46 360 0.0 0.0 0.00 0.05 0.00 24 1007.9
20260508001101 46 360 0.0 0.0 0.00 0.05 0.00 24 1007.8
20260508000927 46 360 0.0 0.0 0.00 0.05 0.00 24 1007.8
20260508000848 46 360 0.0 0.0 0.00 0.05 0.00 22 1007.8
20260508000729 46 360 0.0 0.0 0.00 0.05 0.00 20 1007.8
20260508000650 47 360 0.0 0.0 0.00 0.05 0.00 19 1007.8
20260508000610 47 360 0.0 0.0 0.00 0.05 0.00 19 1007.9
20260508000511 47 360 0.0 0.0 0.00 0.05 0.00 18 1007.8
20260508000430 47 360 0.0 0.0 0.00 0.05 0.00 18 1007.8
20260508000230 47 360 0.0 0.0 0.00 0.05 0.00 25 1007.8
20260508000133 47 360 0.0 0.0 0.00 0.05 0.00 28 1007.8
20260508000038 47 360 0.0 0.0 0.00 0.05 0.00 29 1007.8
20260507235942 47 360 0.0 0.0 0.00 0.05 0.00 30 1007.8
20260507235904 47 360 0.0 0.0 0.00 0.06 0.00 32 1007.8
20260507235807 47 360 0.0 0.0 0.00 0.06 0.00 33 1007.8
20260507235729 47 360 0.0 0.0 0.00 0.06 0.00 33 1007.9
20260507235600 47 360 0.0 0.0 0.00 0.06 0.00 32 1007.9
20260507235454 47 360 0.0 0.0 0.00 0.06 0.00 33 1007.9
20260507235243 47 360 0.0 0.0 0.00 0.06 0.00 38 1007.8
20260507235137 47 360 0.0 0.0 0.00 0.06 0.00 38 1007.9
20260507235032 47 360 0.0 0.0 0.00 0.06 0.00 39 1007.8
20260507234959 48 360 0.0 0.0 0.00 0.06 0.00 39 1007.8
20260507234828 48 360 0.0 0.9 0.00 0.06 0.00 39 1007.8
20260507234724 48 360 0.0 0.9 0.00 0.06 0.00 40 1007.8
20260507234535 48 360 0.0 0.9 0.00 0.06 0.00 42 1007.8
20260507234446 48 360 0.0 0.9 0.00 0.06 0.00 44 1007.8
20260507234234 48 360 0.0 0.9 0.00 0.06 0.00 46 1007.8
20260507234148 48 360 0.0 0.9 0.00 0.06 0.00 47 1007.8
20260507234020 48 335 0.0 0.0 0.00 0.06 0.00 48 1007.8
20260507233940 48 336 0.0 0.0 0.00 0.06 0.00 48 1007.8
20260507233758 49 332 0.0 0.0 0.00 0.06 0.00 48 1007.7
20260507233636 49 332 0.0 0.0 0.00 0.06 0.00 49 1007.7
20260507233559 49 332 0.0 0.0 0.00 0.06 0.00 49 1007.7
20260507233425 49 332 0.0 0.0 0.00 0.06 0.00 48 1007.7
20260507233342 49 332 0.0 0.0 0.00 0.06 0.00 49 1007.8
20260507233210 49 332 0.0 0.9 0.00 0.06 0.00 51 1007.8
20260507233131 49 332 0.0 0.9 0.00 0.06 0.00 52 1007.7
20260507232935 49 332 0.0 0.9 0.00 0.06 0.00 53 1007.7
20260507232859 49 332 0.0 0.9 0.00 0.06 0.00 53 1007.7
20260507232802 49 332 0.0 0.9 0.00 0.06 0.00 53 1007.7
20260507232649 49 332 0.0 0.9 0.00 0.06 0.00 53 1007.7
20260507232524 49 332 0.0 0.9 0.00 0.06 0.00 53 1007.7
20260507232439 49 332 0.9 0.9 0.00 0.06 0.00 52 1007.7
20260507232308 49 332 0.0 0.9 0.00 0.06 0.00 52 1007.7
20260507232230 50 332 0.0 1.7 0.00 0.06 0.00 52 1007.7
20260507232032 50 332 0.0 1.7 0.00 0.06 0.00 49 1007.7
20260507231955 50 332 0.0 1.7 0.00 0.06 0.00 49 1007.7
20260507231838 50 332 0.0 1.7 0.00 0.06 0.00 52 1007.7
20260507231746 50 332 0.0 1.7 0.00 0.06 0.00 52 1007.7
20260507231641 50 332 0.0 1.7 0.00 0.06 0.00 48 1007.7
20260507231604 50 332 0.0 1.7 0.00 0.06 0.00 48 1007.7
20260507231508 50 327 0.0 1.7 0.00 0.06 0.00 49 1007.7
20260507231430 50 327 0.0 1.7 0.00 0.06 0.00 50 1007.7
20260507231234 50 327 0.0 0.9 0.00 0.06 0.00 49 1007.8
20260507231134 50 327 0.0 0.9 0.00 0.06 0.00 51 1007.8
20260507231016 50 331 0.0 0.9 0.00 0.06 0.00 51 1007.8
20260507230936 50 331 0.0 0.9 0.00 0.06 0.00 51 1007.8
20260507230816 50 24 0.0 0.9 0.00 0.06 0.00 49 1007.8
20260507230736 50 24 0.0 0.9 0.00 0.06 0.00 48 1007.8
20260507230605 50 26 0.0 0.9 0.00 0.06 0.00 49 1007.8
20260507230527 50 26 0.0 0.9 0.00 0.06 0.00 49 1007.8
20260507230332 50 24 0.0 0.9 0.00 0.06 0.00 47 1007.8
20260507230234 50 29 0.0 1.7 0.00 0.06 0.00 47 1007.7
20260507230136 50 31 0.0 1.7 0.00 0.06 0.00 45 1007.7
20260507230058 50 31 0.0 1.7 0.00 0.06 0.00 47 1007.7
20260507225927 50 274 0.0 1.7 0.00 0.06 0.00 47 1007.7
20260507225822 50 274 0.0 1.7 0.00 0.06 0.00 47 1007.7
20260507225629 50 274 0.0 2.6 0.00 0.06 0.00 46 1007.7
20260507225552 50 274 0.0 2.6 0.00 0.06 0.00 46 1007.7
20260507225439 50 274 0.0 2.6 0.00 0.06 0.00 47 1007.7
20260507225402 50 274 0.0 2.6 0.00 0.06 0.00 47 1007.7
20260507225324 50 274 0.9 2.6 0.00 0.06 0.00 47 1007.7
20260507225128 50 295 0.0 7.8 0.00 0.06 0.00 46 1007.7
20260507225032 50 295 0.0 7.8 0.00 0.06 0.00 45 1007.7
20260507224934 50 295 0.9 7.8 0.00 0.06 0.00 45 1007.7
20260507224857 50 295 1.7 7.8 0.00 0.06 0.00 45 1007.7
20260507224820 50 295 1.7 7.8 0.00 0.06 0.00 45 1007.7
20260507224641 50 269 1.7 7.8 0.00 0.06 0.00 47 1007.7
20260507224544 50 300 2.6 7.8 0.00 0.06 0.00 45 1007.7
20260507224434 50 298 4.3 7.8 0.00 0.06 0.00 45 1007.6
20260507224327 50 331 4.3 7.8 0.00 0.06 0.00 46 1007.5
20260507224250 50 296 4.3 8.7 0.00 0.06 0.00 45 1007.5
20260507224211 50 334 4.3 8.7 0.00 0.06 0.00 45 1007.5
20260507224106 51 336 5.2 8.7 0.00 0.06 0.00 45 1007.5
20260507223914 51 5 5.2 8.7 0.00 0.06 0.00 44 1007.6
20260507223837 51 337 6.1 8.7 0.00 0.06 0.00 44 1007.5
20260507223708 51 360 4.3 8.7 0.00 0.06 0.00 44 1007.6
20260507223622 51 338 3.5 8.7 0.00 0.06 0.00 44 1007.5
20260507223432 51 329 3.5 8.7 0.00 0.06 0.00 44 1007.5
20260507223330 51 324 3.5 8.7 0.00 0.06 0.00 43 1007.5
20260507223254 51 343 4.3 8.7 0.00 0.06 0.00 43 1007.5
20260507223157 51 333 4.3 8.7 0.00 0.06 0.00 43 1007.5
20260507223118 52 317 4.3 8.7 0.00 0.06 0.00 43 1007.5
20260507222950 52 315 5.2 8.7 0.00 0.06 0.00 42 1007.5
20260507222825 52 311 5.2 8.7 0.00 0.06 0.00 43 1007.4
20260507222720 52 315 5.2 8.7 0.00 0.06 0.00 43 1007.5
20260507222654 52 355 6.1 8.7 0.00 0.06 0.00 42 1007.5
20260507222617 52 321 6.1 8.7 0.00 0.06 0.00 42 1007.5
20260507222426 52 342 4.3 8.7 0.00 0.06 0.00 43 1007.5
20260507222329 52 10 4.3 9.6 0.00 0.06 0.00 41 1007.4
20260507222229 52 312 5.2 9.6 0.00 0.06 0.00 41 1007.5
20260507222151 53 299 5.2 9.6 0.00 0.06 0.00 41 1007.4
20260507221936 53 5 5.2 9.6 0.00 0.06 0.00 42 1007.4
20260507221838 53 350 3.5 9.6 0.00 0.06 0.00 41 1007.4
20260507221739 53 341 3.5 9.6 0.00 0.06 0.00 42 1007.4
20260507221643 53 341 4.3 9.6 0.00 0.06 0.00 42 1007.4
20260507221558 53 319 3.5 9.6 0.00 0.06 0.00 42 1007.4
20260507221410 53 343 3.5 9.6 0.00 0.06 0.00 42 1007.4
20260507221333 52 319 3.5 10.4 0.00 0.06 0.00 42 1007.5
20260507221135 52 355 3.5 10.4 0.00 0.06 0.00 41 1007.5
20260507221058 52 28 4.3 10.4 0.00 0.06 0.00 41 1007.5
20260507220924 52 32 7.0 12.2 0.00 0.06 0.00 40 1007.5
20260507220827 52 338 6.1 12.2 0.00 0.06 0.00 41 1007.4
20260507220751 52 321 6.1 12.2 0.00 0.06 0.00 40 1007.4
20260507220712 52 302 5.2 12.2 0.00 0.06 0.00 40 1007.4
20260507220615 52 287 7.0 12.2 0.00 0.06 0.00 41 1007.4
20260507220538 52 311 7.8 12.2 0.00 0.06 0.00 40 1007.5
20260507220330 52 333 7.0 12.2 0.00 0.06 0.00 41 1007.4
20260507220224 52 309 8.7 12.2 0.00 0.06 0.00 39 1007.4
20260507220146 52 310 7.8 12.2 0.00 0.06 0.00 39 1007.4
20260507220050 52 319 7.0 12.2 0.00 0.06 0.00 41 1007.5
20260507220013 52 343 5.2 10.4 0.00 0.06 0.00 40 1007.4
20260507215913 53 319 5.2 10.4 0.00 0.08 0.00 40 1007.4
20260507215818 53 13 4.3 10.4 0.00 0.08 0.00 41 1007.4
20260507215740 53 345 5.2 10.4 0.00 0.08 0.00 41 1007.4
20260507215611 53 337 3.5 10.4 0.00 0.08 0.00 41 1007.4
20260507215525 53 12 2.6 8.7 0.00 0.08 0.00 42 1007.4
20260507215331 52 250 2.6 10.4 0.00 0.08 0.00 43 1007.5
20260507215257 52 264 1.7 10.4 0.00 0.08 0.00 43 1007.5
20260507215157 52 337 0.9 10.4 0.00 0.08 0.00 44 1007.5
20260507215040 52 317 3.5 10.4 0.00 0.08 0.00 41 1007.5
20260507215004 52 303 5.2 10.4 0.00 0.08 0.00 40 1007.5
20260507214825 52 288 4.3 10.4 0.00 0.08 0.00 42 1007.5
20260507214746 52 294 4.3 11.3 0.00 0.08 0.00 42 1007.5
20260507214642 52 324 5.2 11.3 0.00 0.08 0.00 41 1007.5
20260507214525 52 281 7.0 11.3 0.00 0.08 0.00 41 1007.4
20260507214448 52 326 5.2 11.3 0.00 0.08 0.00 43 1007.4
20260507214415 52 339 4.3 11.3 0.00 0.08 0.00 43 1007.4
20260507214319 52 5 1.7 11.3 0.00 0.08 0.00 42 1007.5
20260507214220 52 41 1.7 11.3 0.00 0.08 0.00 41 1007.5
20260507214023 52 319 5.2 12.2 0.00 0.08 0.00 41 1007.5
20260507213925 52 342 5.2 12.2 0.00 0.08 0.00 41 1007.4
20260507213828 52 342 5.2 12.2 0.00 0.08 0.00 41 1007.4
20260507213801 52 348 7.0 12.2 0.00 0.08 0.00 38 1007.4
20260507213722 52 290 7.8 12.2 0.00 0.08 0.00 38 1007.4
20260507213525 53 323 7.0 13.9 0.00 0.08 0.00 39 1007.4
20260507213430 53 331 6.1 13.9 0.00 0.08 0.00 38 1007.4
20260507213334 53 340 7.0 13.9 0.00 0.08 0.00 38 1007.3
20260507213235 53 355 6.1 13.9 0.00 0.08 0.00 39 1007.3
20260507213106 53 323 5.2 13.9 0.00 0.08 0.00 39 1007.4
20260507213021 53 321 6.1 13.9 0.00 0.08 0.00 39 1007.4
20260507212852 54 279 7.0 13.9 0.00 0.08 0.00 38 1007.3
20260507212725 54 304 4.3 12.2 0.00 0.08 0.00 39 1007.3
20260507212626 54 283 4.3 12.2 0.00 0.08 0.00 39 1007.3
20260507212531 53 304 4.3 12.2 0.00 0.08 0.00 40 1007.4
20260507212454 53 294 4.3 12.2 0.00 0.08 0.00 40 1007.4
20260507212341 53 328 5.2 12.2 0.00 0.08 0.00 40 1007.3
20260507212307 53 239 5.2 12.2 0.00 0.08 0.00 39 1007.3
20260507212146 53 299 7.0 12.2 0.00 0.08 0.00 40 1007.3
20260507212026 53 339 7.8 12.2 0.00 0.08 0.00 39 1007.2
20260507211951 53 5 7.8 15.6 0.00 0.08 0.00 39 1007.2
20260507211854 53 351 7.0 15.6 0.00 0.08 0.00 39 1007.3
20260507211816 54 327 4.3 15.6 0.00 0.08 0.00 40 1007.3
20260507211626 54 300 7.8 15.6 0.00 0.08 0.00 39 1007.3
20260507211519 54 331 8.7 15.6 0.00 0.08 0.00 40 1007.3
20260507211330 54 327 5.2 15.6 0.00 0.08 0.00 40 1007.3
20260507211249 54 285 7.0 15.6 0.00 0.08 0.00 43 1007.3
20260507211119 54 355 7.0 15.6 0.00 0.08 0.00 40 1007.2
20260507211040 54 346 5.2 14.8 0.00 0.08 0.00 41 1007.2
20260507210844 54 347 9.6 14.8 0.00 0.08 0.00 40 1007.1
20260507210804 54 355 10.4 14.8 0.00 0.08 0.00 40 1007.1
20260507210717 54 5 9.6 13.9 0.00 0.08 0.00 39 1007.1
20260507210618 54 9 8.7 12.2 0.00 0.08 0.00 41 1007.1
20260507210450 54 299 7.0 13.0 0.00 0.08 0.00 40 1007.2
20260507210231 53 325 7.0 14.8 0.00 0.08 0.00 40 1007.2
20260507210133 53 332 6.1 14.8 0.00 0.08 0.00 39 1007.2
20260507210040 53 317 5.2 14.8 0.00 0.08 0.00 38 1007.2
20260507205944 54 318 7.0 14.8 0.00 0.08 0.00 38 1007.2
20260507205839 54 312 8.7 14.8 0.00 0.12 0.00 41 1007.1
20260507205724 54 320 7.8 14.8 0.00 0.12 0.00 39 1007.1
20260507205645 54 343 7.0 14.8 0.00 0.12 0.00 39 1007.1
20260507205516 54 339 7.8 14.8 0.00 0.12 0.00 39 1007.2
20260507205430 54 236 7.8 14.8 0.00 0.12 0.00 39 1007.1
20260507205239 54 346 4.3 15.6 0.00 0.12 0.00 39 1007.0
20260507205155 54 318 6.1 15.6 0.00 0.12 0.00 40 1007.0
20260507205122 54 268 6.1 15.6 0.00 0.12 0.00 40 1007.1
20260507204923 54 303 7.8 15.6 0.00 0.12 0.00 39 1007.0
20260507204824 54 332 9.6 15.6 0.00 0.12 0.00 38 1007.0
20260507204728 55 334 11.3 15.6 0.00 0.12 0.00 40 1007.0
20260507204629 55 341 10.4 15.6 0.00 0.12 0.00 38 1007.0
20260507204439 55 339 10.4 15.6 0.00 0.12 0.00 39 1006.9
20260507204332 55 331 10.4 14.8 0.00 0.12 0.00 39 1006.9
20260507204254 55 315 9.6 14.8 0.00 0.12 0.00 39 1006.9
20260507204122 54 321 8.7 13.9 0.00 0.12 0.00 41 1006.9
20260507204037 54 317 8.7 13.9 0.00 0.12 0.00 42 1006.9
20260507203937 54 355 7.0 13.9 0.00 0.12 0.00 41 1006.9
20260507203840 54 323 6.1 13.0 0.00 0.12 0.00 40 1006.9
20260507203744 54 283 7.0 13.0 0.00 0.12 0.00 39 1006.9
20260507203638 54 317 7.8 13.0 0.00 0.12 0.00 37 1006.9
20260507203602 54 296 7.0 13.0 0.00 0.12 0.00 37 1006.9
20260507203506 54 332 6.1 13.0 0.00 0.12 0.00 39 1006.8
20260507203427 54 318 6.1 13.0 0.00 0.12 0.00 40 1006.9
20260507203233 54 319 7.8 14.8 0.00 0.12 0.00 37 1006.9
20260507203135 54 333 7.0 14.8 0.00 0.12 0.00 38 1006.9
20260507203037 54 351 6.1 14.8 0.00 0.12 0.00 39 1006.9
20260507203000 54 318 6.1 14.8 0.00 0.12 0.00 39 1006.9
20260507202922 54 313 6.1 14.8 0.00 0.12 0.00 39 1006.8
20260507202724 55 330 8.7 14.8 0.00 0.12 0.00 38 1006.8
20260507202646 55 355 10.4 14.8 0.00 0.12 0.00 38 1006.8
20260507202549 55 350 10.4 14.8 0.00 0.12 0.00 38 1006.9
20260507202448 55 340 9.6 16.5 0.00 0.12 0.00 39 1006.8
20260507202325 55 290 9.6 16.5 0.00 0.12 0.00 41 1006.8
20260507202226 55 355 10.4 16.5 0.00 0.12 0.00 39 1006.8
20260507202150 55 5 9.6 16.5 0.00 0.12 0.00 38 1006.8
20260507202033 55 355 8.7 16.5 0.00 0.12 0.00 41 1006.7
20260507201955 55 351 7.8 16.5 0.00 0.12 0.00 42 1006.7
20260507201838 55 329 7.0 16.5 0.00 0.12 0.00 38 1006.7
20260507201735 55 329 8.7 16.5 0.00 0.12 0.00 38 1006.7
20260507201656 55 300 8.7 16.5 0.00 0.12 0.00 39 1006.7
20260507201559 55 5 7.8 16.5 0.00 0.12 0.00 39 1006.7
20260507201522 55 350 7.0 16.5 0.00 0.12 0.00 40 1006.8
20260507201329 55 333 7.8 16.5 0.00 0.12 0.00 39 1006.7
20260507201241 55 35 8.7 16.5 0.00 0.12 0.00 39 1006.7
20260507201126 55 319 12.2 16.5 0.00 0.12 0.00 36 1006.8
20260507201049 55 342 13.0 16.5 0.00 0.12 0.00 38 1006.8
20260507200924 55 325 9.6 15.6 0.00 0.12 0.00 40 1006.7
20260507200829 55 9 10.4 15.6 0.00 0.12 0.00 40 1006.8
20260507200729 55 350 10.4 15.6 0.00 0.12 0.00 40 1006.8
20260507200653 55 14 8.7 15.6 0.00 0.12 0.00 40 1006.8
20260507200538 55 305 5.2 15.6 0.00 0.12 0.00 39 1006.8
20260507200502 55 320 7.0 15.6 0.00 0.12 0.00 39 1006.8